M I D A S
Marine Information and Data Acquisition System
Tripno 934 of the Zeeleeuw from 2005-08-24 05:00:00 to 2005-08-24 13:30:53
Back to CruiseResearch ActivitiesStationsMapUnderway DataData graphs

EquipmentUnitsComment
TimeDGPSUTC
LatitudeDGPSDM.mWGS84
LongitudeDGPSDM.mWGS84
TemperatureSBE03/SBE38deg celciusITS90
ConductivitySBE21S/mITS90
SalinitySBE21 Practical Salinity Units
ChlorophylAChelsea fluorimeterg/lCalibrated in Aceton
Missing or incorrect values are displayed as -999
Sea surface data collected by the RV Zeeleeuw from 2005-08-24 05:00:00 to 2005-08-24 13:34:21
                                                                                    Next 1000 lines
Time Latitude Longitude Temperature Conductivity Salinity ChlorophylA
2005-08-24 05:52:30 51°13.599 2°56.097 -999 0.004891 0.030258 0.600836
2005-08-24 05:52:35 51°13.599 2°56.097 -999 0.004891 0.030259 0.600836
2005-08-24 05:52:40 51°13.599 2°56.097 -999 0.004891 0.030259 0.600836
2005-08-24 05:52:44 51°13.599 2°56.097 -999 0.004891 0.030259 0.600836
2005-08-24 05:52:49 51°13.599 2°56.097 -999 0.004891 0.030259 0.600836
2005-08-24 05:52:54 51°13.599 2°56.097 -999 0.004891 0.030259 0.600836
2005-08-24 05:52:59 51°13.599 2°56.097 -999 0.004891 0.030259 0.600836
2005-08-24 05:53:04 51°13.599 2°56.097 -999 0.004891 0.030259 0.600836
2005-08-24 05:53:07 51°13.599 2°56.097 -999 0.004891 0.030259 0.600836
2005-08-24 05:53:12 51°13.599 2°56.097 -999 0.004891 0.030259 0.600836
2005-08-24 05:53:17 51°13.599 2°56.097 -999 0.004891 0.030259 0.600836
2005-08-24 05:53:25 51°13.599 2°56.096 -999 0.004891 0.030259 0.600836
2005-08-24 05:53:30 51°13.598 2°56.104 -999 0.004891 0.030259 0.600836
2005-08-24 05:53:35 51°13.597 2°56.105 -999 0.004891 0.030259 0.600836
2005-08-24 05:53:40 51°13.597 2°56.104 -999 0.004891 0.030259 0.600836
2005-08-24 05:53:44 51°13.596 2°56.103 -999 0.004891 0.030259 0.600836
2005-08-24 05:53:50 51°13.596 2°56.103 -999 0.004891 0.03026 0.600836
2005-08-24 05:53:54 51°13.596 2°56.102 -999 0.004891 0.03026 0.600836
2005-08-24 05:54:00 51°13.596 2°56.103 -999 0.004891 0.03026 0.600836
2005-08-24 05:54:05 51°13.596 2°56.102 -999 0.004891 0.03026 0.600836
2005-08-24 05:54:09 51°13.595 2°56.102 -999 0.004891 0.03026 0.600836
2005-08-24 05:54:14 51°13.595 2°56.1 -999 0.004891 0.03026 0.600836
2005-08-24 05:54:20 51°13.595 2°56.1 -999 0.004891 0.03026 0.600836
2005-08-24 05:54:25 51°13.595 2°56.1 -999 0.004891 0.03026 0.600836
2005-08-24 05:54:30 51°13.595 2°56.099 -999 0.004891 0.03026 0.600836
2005-08-24 05:54:34 51°13.596 2°56.099 -999 0.004891 0.03026 0.600836
2005-08-24 05:54:40 51°13.596 2°56.099 -999 0.004891 0.03026 0.600836
2005-08-24 05:54:45 51°13.596 2°56.099 -999 0.004891 0.03026 0.600836
2005-08-24 05:54:49 51°13.597 2°56.099 -999 0.004891 0.030261 0.600836
2005-08-24 05:54:54 51°13.597 2°56.099 -999 0.004891 0.030261 0.600836
2005-08-24 05:54:59 51°13.597 2°56.099 -999 0.004891 0.030261 0.600836
2005-08-24 05:55:05 51°13.597 2°56.099 -999 0.004891 0.030261 0.600836
2005-08-24 05:55:10 51°13.597 2°56.099 -999 0.004891 0.030261 0.600836
2005-08-24 05:55:14 51°13.597 2°56.099 -999 0.004891 0.030261 0.600836
2005-08-24 05:55:20 51°13.597 2°56.099 -999 0.004891 0.030261 0.600836
2005-08-24 05:55:25 51°13.597 2°56.099 -999 0.004891 0.030261 0.600836
2005-08-24 05:55:30 51°13.597 2°56.099 -999 0.004891 0.030261 0.600836
2005-08-24 05:55:34 51°13.597 2°56.099 -999 0.004891 0.030261 0.600836
2005-08-24 05:55:40 51°13.597 2°56.099 -999 0.004891 0.030261 0.600836
2005-08-24 05:55:45 51°13.597 2°56.099 -999 0.004891 0.030261 0.600836
2005-08-24 05:55:50 51°13.597 2°56.099 -999 0.004891 0.030261 0.600836
2005-08-24 05:55:55 51°13.597 2°56.099 -999 0.004891 0.030262 0.600836
2005-08-24 05:56:00 51°13.597 2°56.099 -999 0.004891 0.030262 0.600836
2005-08-24 05:56:05 51°13.597 2°56.099 -999 0.004891 0.030262 0.600836
2005-08-24 05:56:10 51°13.597 2°56.099 -999 0.004891 0.030262 0.600836
2005-08-24 05:56:14 51°13.597 2°56.099 -999 0.004891 0.030262 0.600836
2005-08-24 05:56:20 51°13.597 2°56.099 -999 0.004891 0.030262 0.600836
2005-08-24 05:56:25 51°13.597 2°56.099 -999 0.004891 0.030262 0.600836
2005-08-24 05:56:29 51°13.597 2°56.099 -999 0.004891 0.030262 0.600836
2005-08-24 05:56:35 51°13.597 2°56.099 -999 0.004891 0.030262 0.600836
2005-08-24 05:56:40 51°13.597 2°56.099 -999 0.004891 0.030262 0.600836
2005-08-24 05:56:45 51°13.597 2°56.099 -999 0.004891 0.030262 0.600836
2005-08-24 05:56:50 51°13.597 2°56.099 -999 0.004891 0.030262 0.600836
2005-08-24 05:56:54 51°13.597 2°56.099 -999 0.004891 0.030263 0.600836
2005-08-24 05:57:00 51°13.597 2°56.099 -999 0.004891 0.030263 0.600836
2005-08-24 05:57:05 51°13.597 2°56.099 -999 0.004891 0.030263 0.600836
2005-08-24 05:57:10 51°13.597 2°56.099 -999 0.004891 0.030263 0.600836
2005-08-24 05:57:14 51°13.597 2°56.099 -999 0.004891 0.030263 0.600836
2005-08-24 05:57:20 51°13.597 2°56.099 -999 0.004891 0.030263 0.600836
2005-08-24 05:57:25 51°13.597 2°56.099 -999 0.004891 0.030263 0.600836
2005-08-24 05:57:30 51°13.597 2°56.099 -999 0.004891 0.030263 0.600836
2005-08-24 05:57:34 51°13.597 2°56.099 -999 0.004891 0.030263 0.600836
2005-08-24 05:57:39 51°13.597 2°56.099 -999 0.004891 0.030263 0.600836
2005-08-24 05:57:45 51°13.597 2°56.099 -999 0.004891 0.030263 0.600836
2005-08-24 05:57:50 51°13.597 2°56.099 -999 0.004891 0.030263 0.600836
2005-08-24 05:57:55 51°13.597 2°56.099 -999 0.004891 0.030263 0.600836
2005-08-24 05:58:00 51°13.597 2°56.099 -999 0.004891 0.030264 0.600836
2005-08-24 05:58:04 51°13.597 2°56.099 -999 0.004891 0.030264 0.600836
2005-08-24 05:58:10 51°13.597 2°56.099 -999 0.004788 0.029779 0.600836
2005-08-24 05:58:15 51°13.597 2°56.099 -999 0.004788 0.029779 0.600836
2005-08-24 05:58:20 51°13.597 2°56.098 -999 0.004788 0.029779 0.600836
2005-08-24 05:58:25 51°13.597 2°56.098 -999 0.004891 0.030264 0.600836
2005-08-24 05:58:30 51°13.597 2°56.098 -999 0.004891 0.030264 0.600836
2005-08-24 05:58:35 51°13.597 2°56.098 -999 0.004891 0.030264 0.600836
2005-08-24 05:58:40 51°13.597 2°56.098 -999 0.004891 0.030264 0.600836
2005-08-24 05:58:45 51°13.597 2°56.098 -999 0.004891 0.030264 0.600836
2005-08-24 05:58:50 51°13.598 2°56.098 -999 0.004891 0.030264 0.600836
2005-08-24 05:58:54 51°13.598 2°56.098 -999 0.004891 0.030264 0.600836
2005-08-24 05:59:00 51°13.598 2°56.098 -999 0.004788 0.02978 0.600836
2005-08-24 05:59:05 51°13.598 2°56.098 -999 0.004788 0.02978 0.600836
2005-08-24 05:59:10 51°13.598 2°56.098 -999 0.004788 0.02978 0.600836
2005-08-24 05:59:15 51°13.598 2°56.098 -999 0.004788 0.02978 0.600836
2005-08-24 05:59:19 51°13.598 2°56.099 -999 0.004891 0.030265 0.600836
2005-08-24 05:59:24 51°13.599 2°56.099 -999 0.004788 0.02978 0.600836
2005-08-24 05:59:30 51°13.599 2°56.098 -999 0.004891 0.030265 0.600836
2005-08-24 05:59:34 51°13.599 2°56.098 -999 0.004891 0.030265 0.600836
2005-08-24 05:59:39 51°13.599 2°56.099 -999 0.004788 0.029781 0.600836
2005-08-24 05:59:44 51°13.599 2°56.099 -999 0.004788 0.029781 0.600836
2005-08-24 05:59:50 51°13.599 2°56.098 -999 0.004788 0.029781 0.600836
2005-08-24 05:59:54 51°13.599 2°56.098 -999 0.004788 0.029781 0.600836
2005-08-24 05:59:59 51°13.599 2°56.098 -999 0.004891 0.030265 0.600836
2005-08-24 06:00:04 51°13.599 2°56.098 -999 0.004788 0.029781 0.600836
2005-08-24 06:00:10 51°13.599 2°56.098 -999 0.004788 0.029781 0.600836
2005-08-24 06:00:14 51°13.599 2°56.098 -999 0.004788 0.029781 0.600836
2005-08-24 06:00:19 51°13.599 2°56.098 -999 0.004788 0.029781 0.600836
2005-08-24 06:00:24 51°13.599 2°56.098 -999 0.004788 0.029781 0.600836
2005-08-24 06:00:30 51°13.599 2°56.098 -999 0.004788 0.029781 0.600836
2005-08-24 06:00:34 51°13.599 2°56.098 -999 0.004788 0.029781 0.600836
2005-08-24 06:00:39 51°13.599 2°56.098 -999 0.004788 0.029782 0.600836
2005-08-24 06:00:44 51°13.599 2°56.098 -999 0.004788 0.029782 0.600836
2005-08-24 06:00:50 51°13.599 2°56.098 -999 0.004788 0.029782 0.600836
2005-08-24 06:00:54 51°13.599 2°56.098 -999 0.004788 0.029782 0.600836
2005-08-24 06:00:59 51°13.599 2°56.098 -999 0.004788 0.029782 0.600836
2005-08-24 06:01:04 51°13.599 2°56.098 -999 0.004788 0.029782 0.600836
2005-08-24 06:01:10 51°13.599 2°56.097 -999 0.004788 0.029782 0.600836
2005-08-24 06:01:14 51°13.599 2°56.098 -999 0.004788 0.029782 0.600836
2005-08-24 06:01:19 51°13.599 2°56.098 -999 0.004788 0.029782 0.600836
2005-08-24 06:01:24 51°13.599 2°56.098 -999 0.004788 0.029782 0.600836
2005-08-24 06:01:30 51°13.599 2°56.098 -999 0.004788 0.029782 0.600836
2005-08-24 06:01:34 51°13.599 2°56.098 -999 0.004788 0.029782 0.600836
2005-08-24 06:01:39 51°13.599 2°56.098 -999 0.004788 0.029782 0.600836
2005-08-24 06:01:45 51°13.599 2°56.098 -999 0.004788 0.029782 0.600836
2005-08-24 06:01:50 51°13.599 2°56.097 -999 0.004788 0.029783 0.600836
2005-08-24 06:01:54 51°13.598 2°56.097 -999 0.004788 0.029783 0.600836
2005-08-24 06:01:59 51°13.598 2°56.097 -999 0.004788 0.029783 0.600836
2005-08-24 06:02:04 51°13.598 2°56.097 -999 0.004788 0.029783 0.600836
2005-08-24 06:02:10 51°13.598 2°56.097 -999 0.004788 0.029783 0.600836
2005-08-24 06:02:14 51°13.598 2°56.097 -999 0.004788 0.029783 0.600836
2005-08-24 06:02:19 51°13.598 2°56.097 -999 0.004788 0.029783 0.600836
2005-08-24 06:02:24 51°13.598 2°56.097 -999 0.004788 0.029783 0.600836
2005-08-24 06:02:30 51°13.598 2°56.097 -999 0.004788 0.029783 0.600836
2005-08-24 06:02:34 51°13.598 2°56.097 -999 0.004788 0.029783 0.600836
2005-08-24 06:02:39 51°13.598 2°56.097 -999 0.004788 0.029783 0.600836
2005-08-24 06:02:44 51°13.598 2°56.097 -999 0.004788 0.029783 0.600836
2005-08-24 06:02:50 51°13.598 2°56.097 -999 0.004788 0.029784 0.600836
2005-08-24 06:02:54 51°13.598 2°56.096 -999 0.004788 0.029784 0.600836
2005-08-24 06:02:59 51°13.598 2°56.097 -999 0.004788 0.029784 0.600836
2005-08-24 06:03:04 51°13.598 2°56.097 -999 0.004788 0.029784 0.600836
2005-08-24 06:03:10 51°13.598 2°56.097 -999 0.004788 0.029784 0.600836
2005-08-24 06:03:14 51°13.598 2°56.097 -999 0.004788 0.029784 0.600836
2005-08-24 06:03:20 51°13.598 2°56.097 -999 0.004788 0.029784 0.600836
2005-08-24 06:03:24 51°13.598 2°56.097 -999 0.004788 0.029784 0.600836
2005-08-24 06:03:30 51°13.598 2°56.097 -999 0.004788 0.029784 0.600836
2005-08-24 06:03:34 51°13.598 2°56.097 -999 0.004788 0.029784 0.600836
2005-08-24 06:03:39 51°13.598 2°56.097 -999 0.004788 0.029785 0.600836
2005-08-24 06:03:44 51°13.598 2°56.097 -999 0.004788 0.029785 0.600836
2005-08-24 06:03:50 51°13.598 2°56.097 -999 0.004788 0.029785 0.600836
2005-08-24 06:03:54 51°13.598 2°56.097 -999 0.004788 0.029785 0.600836
2005-08-24 06:03:59 51°13.598 2°56.097 -999 0.004788 0.029785 0.600836
2005-08-24 06:04:04 51°13.598 2°56.097 -999 0.004788 0.029785 0.600836
2005-08-24 06:04:09 51°13.598 2°56.097 -999 0.004788 0.029785 0.600836
2005-08-24 06:04:17 51°13.598 2°56.096 -999 0.004788 0.029785 0.600836
2005-08-24 06:04:21 51°13.598 2°56.096 -999 0.004788 0.029785 0.600836
2005-08-24 06:04:26 51°13.598 2°56.096 -999 0.004788 0.029785 0.600836
2005-08-24 06:04:31 51°13.598 2°56.096 -999 0.004788 0.029785 0.600836
2005-08-24 06:04:36 51°13.598 2°56.095 -999 0.004788 0.029786 0.600836
2005-08-24 06:04:40 51°13.598 2°56.096 -999 0.004788 0.029786 0.600836
2005-08-24 06:04:45 51°13.598 2°56.096 -999 0.004788 0.029786 0.600836
2005-08-24 06:04:49 51°13.599 2°56.096 -999 0.004788 0.029786 0.600836
2005-08-24 06:04:54 51°13.599 2°56.096 -999 0.004788 0.029786 0.600836
2005-08-24 06:04:59 51°13.599 2°56.096 -999 0.004788 0.029786 0.600836
2005-08-24 06:05:03 51°13.599 2°56.096 -999 0.004788 0.029786 0.600836
2005-08-24 06:05:09 51°13.599 2°56.096 -999 0.004788 0.029786 0.600836
2005-08-24 06:05:14 51°13.599 2°56.096 -999 0.004788 0.029786 0.600836
2005-08-24 06:05:19 51°13.599 2°56.096 -999 0.004788 0.029786 0.600836
2005-08-24 06:05:24 51°13.599 2°56.096 -999 0.004788 0.029786 0.600836
2005-08-24 06:05:29 51°13.599 2°56.096 -999 0.004788 0.029787 0.600836
2005-08-24 06:05:34 51°13.599 2°56.096 -999 0.004788 0.029787 0.600836
2005-08-24 06:05:39 51°13.598 2°56.097 -999 0.004788 0.029787 0.600836
2005-08-24 06:05:42 51°13.598 2°56.097 -999 0.004788 0.029787 0.600836
2005-08-24 06:05:49 51°13.597 2°56.097 -999 0.004788 0.029787 0.600836
2005-08-24 06:05:54 51°13.597 2°56.096 -999 0.004788 0.029787 0.600836
2005-08-24 06:05:59 51°13.597 2°56.096 -999 0.004788 0.029787 0.600836
2005-08-24 06:06:04 51°13.597 2°56.096 -999 0.004788 0.029787 0.600836
2005-08-24 06:06:09 51°13.597 2°56.096 -999 0.004788 0.029787 0.600836
2005-08-24 06:06:14 51°13.597 2°56.096 -999 0.004788 0.029788 0.600836
2005-08-24 06:06:19 51°13.597 2°56.096 -999 0.004788 0.029788 0.600836
2005-08-24 06:06:23 51°13.597 2°56.097 -999 0.004788 0.029788 0.600836
2005-08-24 06:06:29 51°13.597 2°56.097 -999 0.004788 0.029788 0.600836
2005-08-24 06:06:34 51°13.597 2°56.097 -999 0.004788 0.029788 0.600836
2005-08-24 06:06:38 51°13.597 2°56.097 -999 0.004788 0.029788 0.600836
2005-08-24 06:06:43 51°13.597 2°56.096 -999 0.004788 0.029788 0.600836
2005-08-24 06:06:49 51°13.597 2°56.097 -999 0.004788 0.029788 0.600836
2005-08-24 06:06:54 51°13.597 2°56.097 -999 0.004788 0.029788 0.567127
2005-08-24 06:06:59 51°13.597 2°56.096 -999 0.004788 0.029788 0.600836
2005-08-24 06:07:03 51°13.597 2°56.097 -999 0.004788 0.029788 0.600836
2005-08-24 06:07:09 51°13.597 2°56.097 -999 0.004788 0.029789 0.600836
2005-08-24 06:07:14 51°13.597 2°56.096 -999 0.004788 0.029789 0.567127
2005-08-24 06:07:18 51°13.597 2°56.097 -999 0.004788 0.029789 0.567127
2005-08-24 06:07:24 51°13.597 2°56.096 -999 0.004788 0.029789 0.600836
2005-08-24 06:07:29 51°13.597 2°56.096 -999 0.004788 0.029789 0.600836
2005-08-24 06:07:34 51°13.597 2°56.097 -999 0.004788 0.029789 0.600836
2005-08-24 06:07:39 51°13.597 2°56.097 -999 0.004788 0.029789 0.600836
2005-08-24 06:07:42 51°13.597 2°56.097 -999 0.004788 0.029789 0.600836
2005-08-24 06:07:49 51°13.597 2°56.097 -999 0.004788 0.029789 0.600836
2005-08-24 06:07:54 51°13.597 2°56.097 -999 0.004788 0.029789 0.567127
2005-08-24 06:07:59 51°13.597 2°56.096 -999 0.004788 0.029789 0.600836
2005-08-24 06:08:04 51°13.597 2°56.097 -999 0.004788 0.029789 0.600836
2005-08-24 06:08:09 51°13.597 2°56.097 -999 0.004788 0.02979 0.600836
2005-08-24 06:08:14 51°13.597 2°56.097 -999 0.004788 0.02979 0.600836
2005-08-24 06:08:19 51°13.597 2°56.097 -999 0.004788 0.02979 0.600836
2005-08-24 06:08:22 51°13.597 2°56.097 -999 0.004788 0.02979 0.600836
2005-08-24 06:08:30 51°13.597 2°56.096 -999 0.004788 0.02979 0.567127
2005-08-24 06:08:34 51°13.597 2°56.096 -999 0.004788 0.02979 0.600836
2005-08-24 06:08:39 51°13.596 2°56.096 -999 0.004788 0.02979 0.600836
2005-08-24 06:08:43 51°13.596 2°56.097 -999 0.004788 0.02979 0.600836
2005-08-24 06:08:49 51°13.596 2°56.096 -999 0.004788 0.02979 0.600836
2005-08-24 06:08:54 51°13.596 2°56.097 -999 0.004788 0.02979 0.600836
2005-08-24 06:08:59 51°13.596 2°56.097 -999 0.004788 0.029791 0.600836
2005-08-24 06:09:04 51°13.596 2°56.096 -999 0.004788 0.029791 0.600836
2005-08-24 06:09:10 51°13.596 2°56.096 -999 0.004788 0.029791 0.600836
2005-08-24 06:09:14 51°13.596 2°56.096 -999 0.004788 0.029791 0.600836
2005-08-24 06:09:19 51°13.596 2°56.097 -999 0.004788 0.029791 0.600836
2005-08-24 06:09:24 51°13.596 2°56.097 -999 0.004788 0.029791 0.600836
2005-08-24 06:09:29 51°13.596 2°56.097 -999 0.004788 0.029791 0.600836
2005-08-24 06:09:34 51°13.596 2°56.096 -999 0.004788 0.029791 0.600836
2005-08-24 06:09:39 51°13.596 2°56.097 -999 0.004788 0.029791 0.600836
2005-08-24 06:09:43 51°13.596 2°56.097 -999 0.004788 0.029791 0.600836
2005-08-24 06:09:49 51°13.597 2°56.097 -999 0.004788 0.029791 0.600836
2005-08-24 06:09:54 51°13.597 2°56.096 -999 0.004788 0.029792 0.600836
2005-08-24 06:09:58 51°13.597 2°56.096 -999 0.004788 0.029792 0.567127
2005-08-24 06:10:04 51°13.597 2°56.097 -999 0.004788 0.029792 0.600836
2005-08-24 06:10:09 51°13.597 2°56.096 -999 0.004788 0.029792 0.567127
2005-08-24 06:10:14 51°13.597 2°56.097 -999 0.004788 0.029792 0.567127
2005-08-24 06:10:19 51°13.596 2°56.097 -999 0.004788 0.029792 0.567127
2005-08-24 06:10:24 51°13.597 2°56.097 -999 0.004788 0.029792 0.600836
2005-08-24 06:10:29 51°13.597 2°56.097 -999 0.004788 0.029792 0.600836
2005-08-24 06:10:34 51°13.597 2°56.097 -999 0.004788 0.029793 0.567127
2005-08-24 06:10:39 51°13.597 2°56.097 -999 0.004788 0.029793 0.600836
2005-08-24 06:10:43 51°13.597 2°56.097 -999 0.004788 0.029793 0.567127
2005-08-24 06:10:49 51°13.597 2°56.096 -999 0.004788 0.029793 0.567127
2005-08-24 06:10:54 51°13.597 2°56.096 -999 0.004788 0.029793 0.567127
2005-08-24 06:10:58 51°13.597 2°56.096 -999 0.004788 0.029793 0.600836
2005-08-24 06:11:03 51°13.597 2°56.096 -999 0.004788 0.029793 0.567127
2005-08-24 06:11:09 51°13.597 2°56.096 -999 0.004788 0.029793 0.600836
2005-08-24 06:11:14 51°13.597 2°56.096 -999 0.004788 0.029793 0.600836
2005-08-24 06:11:18 51°13.597 2°56.096 -999 0.004788 0.029793 0.600836
2005-08-24 06:11:23 51°13.597 2°56.096 -999 0.004788 0.029793 0.600836
2005-08-24 06:11:29 51°13.597 2°56.096 -999 0.004788 0.029793 0.567127
2005-08-24 06:11:34 51°13.597 2°56.096 -999 0.004788 0.029794 0.600836
2005-08-24 06:11:39 51°13.597 2°56.096 -999 0.004788 0.029794 0.567127
2005-08-24 06:11:42 51°13.597 2°56.096 -999 0.004788 0.029794 0.600836
2005-08-24 06:11:50 51°13.597 2°56.096 -999 0.004788 0.029794 0.600836
2005-08-24 06:11:54 51°13.597 2°56.096 -999 0.004788 0.029794 0.600836
2005-08-24 06:11:59 51°13.597 2°56.096 -999 0.004788 0.029794 0.600836
2005-08-24 06:12:04 51°13.597 2°56.096 -999 0.004788 0.029794 0.600836
2005-08-24 06:12:09 51°13.598 2°56.096 -999 0.004788 0.029794 0.600836
2005-08-24 06:12:14 51°13.598 2°56.096 -999 0.004788 0.029794 0.567127
2005-08-24 06:12:19 51°13.598 2°56.096 -999 0.004788 0.029794 0.567127
2005-08-24 06:12:22 51°13.597 2°56.096 -999 0.004788 0.029795 0.567127
2005-08-24 06:12:29 51°13.597 2°56.097 -999 0.004788 0.029795 0.567127
2005-08-24 06:12:34 51°13.597 2°56.097 -999 0.004788 0.029795 0.600836
2005-08-24 06:12:39 51°13.597 2°56.097 -999 0.004788 0.029795 0.600836
2005-08-24 06:12:44 51°13.597 2°56.096 -999 0.004788 0.029795 0.600836
2005-08-24 06:12:49 51°13.597 2°56.096 -999 0.004788 0.029795 0.600836
2005-08-24 06:12:54 51°13.597 2°56.097 -999 0.004788 0.029795 0.567127
2005-08-24 06:12:59 51°13.597 2°56.096 -999 0.004788 0.029795 0.567127
2005-08-24 06:13:04 51°13.598 2°56.097 -999 0.004788 0.029795 0.600836
2005-08-24 06:13:09 51°13.597 2°56.097 -999 0.004788 0.029796 0.567127
2005-08-24 06:13:14 51°13.597 2°56.097 -999 0.004788 0.029796 0.600836
2005-08-24 06:13:19 51°13.598 2°56.096 -999 0.004788 0.029796 0.600836
2005-08-24 06:13:24 51°13.598 2°56.096 -999 0.004788 0.029796 0.600836
2005-08-24 06:13:29 51°13.598 2°56.096 -999 0.004788 0.029796 0.567127
2005-08-24 06:13:34 51°13.598 2°56.096 -999 0.004788 0.029796 0.567127
2005-08-24 06:13:39 51°13.598 2°56.096 -999 0.004788 0.029796 0.567127
2005-08-24 06:13:44 51°13.598 2°56.096 -999 0.004788 0.029796 0.567127
2005-08-24 06:13:50 51°13.598 2°56.096 -999 0.004788 0.029796 0.567127
2005-08-24 06:13:54 51°13.598 2°56.097 -999 0.004788 0.029796 0.567127
2005-08-24 06:13:58 51°13.598 2°56.097 -999 0.004788 0.029796 0.567127
2005-08-24 06:14:03 51°13.598 2°56.096 -999 0.004788 0.029797 0.600836
2005-08-24 06:14:09 51°13.598 2°56.096 -999 0.004788 0.029797 0.567127
2005-08-24 06:14:14 51°13.598 2°56.096 -999 0.004788 0.029797 0.567127
2005-08-24 06:14:18 51°13.598 2°56.097 -999 0.004788 0.029797 0.567127
2005-08-24 06:14:23 51°13.599 2°56.096 -999 0.004788 0.029797 0.600836
2005-08-24 06:14:29 51°13.598 2°56.096 -999 0.004788 0.029797 0.600836
2005-08-24 06:14:34 51°13.598 2°56.096 -999 0.004788 0.029797 0.600836
2005-08-24 06:14:39 51°13.598 2°56.096 -999 0.004788 0.029797 0.600836
2005-08-24 06:14:42 51°13.598 2°56.096 -999 0.004788 0.029797 0.600836
2005-08-24 06:14:49 51°13.598 2°56.096 -999 0.004788 0.029797 0.600836
2005-08-24 06:14:54 51°13.598 2°56.096 -999 0.004788 0.029797 0.567127
2005-08-24 06:14:59 51°13.598 2°56.096 -999 0.004788 0.029798 0.567127
2005-08-24 06:15:03 51°13.598 2°56.096 -999 0.004788 0.029798 0.567127
2005-08-24 06:15:09 51°13.598 2°56.096 -999 0.004788 0.029798 0.567127
2005-08-24 06:15:14 51°13.598 2°56.096 -999 0.004788 0.029798 0.567127
2005-08-24 06:15:19 51°13.598 2°56.097 -999 0.004788 0.029798 0.567127
2005-08-24 06:15:23 51°13.598 2°56.097 -999 0.004788 0.029798 0.567127
2005-08-24 06:15:29 51°13.598 2°56.097 -999 0.004788 0.029798 0.600836
2005-08-24 06:15:34 51°13.598 2°56.096 -999 0.004788 0.029798 0.600836
2005-08-24 06:15:39 51°13.598 2°56.096 -999 0.004788 0.029798 0.567127
2005-08-24 06:15:45 51°13.598 2°56.096 -999 0.004788 0.029799 0.567127
2005-08-24 06:15:49 51°13.598 2°56.096 -999 0.004788 0.029799 0.567127
2005-08-24 06:15:54 51°13.598 2°56.096 -999 0.004788 0.029799 0.567127
2005-08-24 06:15:59 51°13.598 2°56.096 -999 0.004788 0.029799 0.567127
2005-08-24 06:16:04 51°13.597 2°56.096 -999 0.004788 0.029799 0.567127
2005-08-24 06:16:09 51°13.597 2°56.096 -999 0.004788 0.029799 0.567127
2005-08-24 06:16:14 51°13.597 2°56.096 -999 0.004788 0.029799 0.567127
2005-08-24 06:16:19 51°13.597 2°56.096 -999 0.004788 0.029799 0.567127
2005-08-24 06:16:24 51°13.597 2°56.096 -999 0.004788 0.029799 0.567127
2005-08-24 06:16:29 51°13.597 2°56.096 -999 0.004788 0.029799 0.567127
2005-08-24 06:16:34 51°13.597 2°56.097 -999 0.004788 0.029799 0.600836
2005-08-24 06:16:39 51°13.597 2°56.096 -999 0.004788 0.0298 0.567127
2005-08-24 06:16:43 51°13.597 2°56.096 -999 0.004788 0.0298 0.567127
2005-08-24 06:16:49 51°13.597 2°56.097 -999 0.004788 0.0298 0.567127
2005-08-24 06:16:54 51°13.597 2°56.097 -999 0.004788 0.0298 0.567127
2005-08-24 06:16:59 51°13.596 2°56.097 -999 0.004788 0.0298 0.567127
2005-08-24 06:17:03 51°13.596 2°56.098 -999 0.004788 0.0298 0.600836
2005-08-24 06:17:09 51°13.596 2°56.098 -999 0.004788 0.0298 0.567127
2005-08-24 06:17:14 51°13.595 2°56.098 -999 0.004788 0.0298 0.567127
2005-08-24 06:17:19 51°13.595 2°56.098 -999 0.004788 0.0298 0.567127
2005-08-24 06:17:23 51°13.595 2°56.098 -999 0.004788 0.0298 0.600836
2005-08-24 06:17:29 51°13.595 2°56.098 -999 0.004788 0.029801 0.567127
2005-08-24 06:17:34 51°13.595 2°56.097 -999 0.004788 0.029801 0.567127
2005-08-24 06:17:39 51°13.595 2°56.097 -999 0.004788 0.029801 0.567127
2005-08-24 06:17:43 51°13.595 2°56.097 -999 0.004788 0.029801 0.600836
2005-08-24 06:17:49 51°13.595 2°56.097 -999 0.004788 0.029801 0.600836
2005-08-24 06:17:54 51°13.595 2°56.097 -999 0.004788 0.029801 0.567127
2005-08-24 06:17:58 51°13.595 2°56.097 -999 0.004788 0.029801 0.567127
2005-08-24 06:18:04 51°13.596 2°56.097 -999 0.004788 0.029801 0.567127
2005-08-24 06:18:10 51°13.596 2°56.097 -999 0.004788 0.029801 0.567127
2005-08-24 06:18:14 51°13.596 2°56.097 -999 0.004788 0.029801 0.567127
2005-08-24 06:18:19 51°13.596 2°56.097 -999 0.004788 0.029801 0.567127
2005-08-24 06:18:22 51°13.596 2°56.097 -999 0.004788 0.029801 0.567127
2005-08-24 06:18:29 51°13.596 2°56.097 -999 0.004788 0.029802 0.567127
2005-08-24 06:18:34 51°13.597 2°56.097 -999 0.004788 0.029802 0.567127
2005-08-24 06:18:39 51°13.597 2°56.097 -999 0.004788 0.029802 0.600836
2005-08-24 06:18:44 51°13.597 2°56.097 -999 0.004788 0.029802 0.567127
2005-08-24 06:18:49 51°13.597 2°56.097 -999 0.004788 0.029802 0.567127
2005-08-24 06:18:54 51°13.597 2°56.097 -999 0.004788 0.029802 0.567127
2005-08-24 06:18:58 51°13.597 2°56.097 -999 0.004788 0.029802 0.567127
2005-08-24 06:19:03 51°13.597 2°56.097 -999 0.004788 0.029802 0.567127
2005-08-24 06:19:09 51°13.597 2°56.097 -999 0.004788 0.029802 0.567127
2005-08-24 06:19:14 51°13.597 2°56.097 -999 0.004788 0.029802 0.567127
2005-08-24 06:19:19 51°13.597 2°56.097 -999 0.004788 0.029802 0.567127
2005-08-24 06:19:24 51°13.597 2°56.097 -999 0.004788 0.029803 0.567127
2005-08-24 06:19:29 51°13.597 2°56.097 -999 0.004788 0.029803 0.567127
2005-08-24 06:19:34 51°13.597 2°56.097 -999 0.004788 0.029803 0.567127
2005-08-24 06:19:39 51°13.597 2°56.097 -999 0.004788 0.029803 0.567127
2005-08-24 06:19:43 51°13.597 2°56.097 -999 0.004788 0.029803 0.567127
2005-08-24 06:19:49 51°13.596 2°56.097 -999 0.004788 0.029803 0.567127
2005-08-24 06:19:54 51°13.596 2°56.097 -999 0.004788 0.029803 0.567127
2005-08-24 06:19:59 51°13.597 2°56.097 -999 0.004788 0.029803 0.567127
2005-08-24 06:20:02 51°13.597 2°56.097 -999 0.004788 0.029803 0.567127
2005-08-24 06:20:09 51°13.597 2°56.097 -999 0.004788 0.029803 0.567127
2005-08-24 06:20:14 51°13.597 2°56.098 -999 0.004788 0.029804 0.567127
2005-08-24 06:20:19 51°13.597 2°56.098 -999 0.004788 0.029804 0.567127
2005-08-24 06:20:22 51°13.597 2°56.098 -999 0.004788 0.029804 0.567127
2005-08-24 06:20:29 51°13.597 2°56.097 -999 0.004788 0.029804 0.567127
2005-08-24 06:20:34 51°13.597 2°56.097 -999 0.004788 0.029804 0.567127
2005-08-24 06:20:39 51°13.597 2°56.097 -999 0.004788 0.029804 0.567127
2005-08-24 06:20:44 51°13.597 2°56.097 -999 0.004788 0.029804 0.567127
2005-08-24 06:20:49 51°13.597 2°56.097 -999 0.004788 0.029804 0.567127
2005-08-24 06:20:54 51°13.597 2°56.097 -999 0.004788 0.029804 0.567127
2005-08-24 06:20:59 51°13.597 2°56.097 -999 0.004788 0.029804 0.567127
2005-08-24 06:21:04 51°13.597 2°56.097 -999 0.004788 0.029804 0.567127
2005-08-24 06:21:09 51°13.597 2°56.097 -999 0.004788 0.029805 0.567127
2005-08-24 06:21:14 51°13.597 2°56.097 -999 0.004788 0.029805 0.567127
2005-08-24 06:21:19 51°13.597 2°56.097 -999 0.004788 0.029805 0.567127
2005-08-24 06:21:24 51°13.597 2°56.097 -999 0.004788 0.029805 0.567127
2005-08-24 06:21:29 51°13.598 2°56.097 -999 0.004788 0.029805 0.567127
2005-08-24 06:21:34 51°13.598 2°56.097 -999 0.004788 0.029805 0.567127
2005-08-24 06:21:39 51°13.598 2°56.097 -999 0.004788 0.029805 0.567127
2005-08-24 06:21:43 51°13.598 2°56.097 -999 0.004788 0.029805 0.567127
2005-08-24 06:21:49 51°13.598 2°56.097 -999 0.004788 0.029805 0.567127
2005-08-24 06:21:54 51°13.598 2°56.096 -999 0.004788 0.029805 0.567127
2005-08-24 06:21:59 51°13.598 2°56.097 -999 0.004788 0.029805 0.567127
2005-08-24 06:22:02 51°13.598 2°56.097 -999 0.004788 0.029805 0.567127
2005-08-24 06:22:09 51°13.598 2°56.096 -999 0.004788 0.029805 0.567127
2005-08-24 06:22:14 51°13.598 2°56.096 -999 0.004788 0.029806 0.567127
2005-08-24 06:22:19 51°13.598 2°56.096 -999 0.004788 0.029806 0.567127
2005-08-24 06:22:24 51°13.598 2°56.096 -999 0.004788 0.029806 0.567127
2005-08-24 06:22:30 51°13.598 2°56.096 -999 0.004788 0.029806 0.567127
2005-08-24 06:22:34 51°13.598 2°56.097 -999 0.004788 0.029806 0.567127
2005-08-24 06:22:39 51°13.599 2°56.096 -999 0.004788 0.029806 0.567127
2005-08-24 06:22:43 51°13.599 2°56.096 -999 0.004788 0.029806 0.567127
2005-08-24 06:22:49 51°13.599 2°56.096 -999 0.004788 0.029806 0.567127
2005-08-24 06:22:54 51°13.599 2°56.096 -999 0.004788 0.029806 0.567127
2005-08-24 06:22:59 51°13.599 2°56.097 -999 0.004788 0.029806 0.567127
2005-08-24 06:23:03 51°13.598 2°56.096 -999 0.004788 0.029807 0.567127
2005-08-24 06:23:10 51°13.597 2°56.096 -999 0.004788 0.029807 0.567127
2005-08-24 06:23:14 51°13.597 2°56.096 -999 0.004788 0.029807 0.567127
2005-08-24 06:23:19 51°13.597 2°56.096 -999 0.004788 0.029807 0.567127
2005-08-24 06:23:23 51°13.597 2°56.095 -999 0.004788 0.029807 0.567127
2005-08-24 06:23:30 51°13.596 2°56.095 -999 0.004788 0.029807 0.567127
2005-08-24 06:23:34 51°13.596 2°56.096 -999 0.004788 0.029807 0.567127
2005-08-24 06:23:39 51°13.597 2°56.096 -999 0.004788 0.029807 0.567127
2005-08-24 06:23:44 51°13.597 2°56.096 -999 0.004788 0.029807 0.567127
2005-08-24 06:23:49 51°13.597 2°56.096 -999 0.004788 0.029807 0.567127
2005-08-24 06:23:54 51°13.597 2°56.096 -999 0.004788 0.029807 0.567127
2005-08-24 06:23:59 51°13.597 2°56.096 -999 0.004788 0.029807 0.567127
2005-08-24 06:24:04 51°13.597 2°56.096 -999 0.004788 0.029808 0.567127
2005-08-24 06:24:09 51°13.597 2°56.096 -999 0.004788 0.029808 0.567127
2005-08-24 06:24:14 51°13.597 2°56.096 -999 0.004788 0.029808 0.567127
2005-08-24 06:24:19 51°13.597 2°56.096 -999 0.004788 0.029808 0.567127
2005-08-24 06:24:23 51°13.597 2°56.097 -999 0.004788 0.029808 0.567127
2005-08-24 06:24:29 51°13.597 2°56.096 -999 0.004788 0.029808 0.567127
2005-08-24 06:24:34 51°13.597 2°56.096 -999 0.004788 0.029808 0.567127
2005-08-24 06:24:39 51°13.597 2°56.096 -999 0.004788 0.029808 0.567127
2005-08-24 06:24:44 51°13.598 2°56.096 -999 0.004788 0.029808 0.567127
2005-08-24 06:24:49 51°13.598 2°56.096 -999 0.004788 0.029808 0.567127
2005-08-24 06:24:54 51°13.599 2°56.096 -999 0.004788 0.029808 0.567127
2005-08-24 06:24:59 51°13.599 2°56.096 -999 0.004788 0.029809 0.567127
2005-08-24 06:25:03 51°13.6 2°56.097 -999 0.004788 0.029809 0.567127
2005-08-24 06:25:09 51°13.601 2°56.097 -999 0.004788 0.029809 0.567127
2005-08-24 06:25:14 51°13.601 2°56.097 -999 0.004788 0.029809 0.567127
2005-08-24 06:25:18 51°13.601 2°56.096 -999 0.004788 0.029809 0.567127
2005-08-24 06:25:24 51°13.599 2°56.096 -999 0.004788 0.029809 0.567127
2005-08-24 06:25:29 51°13.599 2°56.096 -999 0.004788 0.029809 0.567127
2005-08-24 06:25:34 51°13.599 2°56.096 -999 0.004788 0.029809 0.567127
2005-08-24 06:25:39 51°13.599 2°56.096 -999 0.004788 0.029809 0.567127
2005-08-24 06:25:43 51°13.599 2°56.096 -999 0.004788 0.029809 0.567127
2005-08-24 06:25:49 51°13.599 2°56.096 -999 0.004788 0.029809 0.567127
2005-08-24 06:25:54 51°13.599 2°56.096 -999 0.004788 0.02981 0.567127
2005-08-24 06:25:59 51°13.599 2°56.096 -999 0.004788 0.02981 0.567127
2005-08-24 06:26:03 51°13.6 2°56.096 -999 0.004788 0.02981 0.567127
2005-08-24 06:26:09 51°13.601 2°56.097 -999 0.004788 0.02981 0.567127
2005-08-24 06:26:14 51°13.602 2°56.097 -999 0.004788 0.02981 0.567127
2005-08-24 06:26:19 51°13.601 2°56.096 -999 0.004788 0.02981 0.567127
2005-08-24 06:26:23 51°13.601 2°56.096 -999 0.004788 0.02981 0.567127
2005-08-24 06:26:29 51°13.6 2°56.097 -999 0.004788 0.02981 0.567127
2005-08-24 06:26:34 51°13.6 2°56.096 -999 0.004788 0.02981 0.567127
2005-08-24 06:26:39 51°13.6 2°56.096 -999 0.004788 0.02981 0.567127
2005-08-24 06:26:43 51°13.6 2°56.096 -999 0.004788 0.02981 0.567127
2005-08-24 06:26:49 51°13.6 2°56.096 -999 0.004788 0.02981 0.567127
2005-08-24 06:26:54 51°13.6 2°56.096 -999 0.004788 0.02981 0.567127
2005-08-24 06:26:59 51°13.6 2°56.096 -999 0.004788 0.029811 0.567127
2005-08-24 06:27:03 51°13.6 2°56.096 -999 0.004788 0.029811 0.567127
2005-08-24 06:27:10 51°13.6 2°56.096 -999 0.004788 0.029811 0.567127
2005-08-24 06:27:14 51°13.6 2°56.096 -999 0.004788 0.029811 0.567127
2005-08-24 06:27:19 51°13.6 2°56.096 -999 0.004788 0.029811 0.567127
2005-08-24 06:27:23 51°13.6 2°56.096 -999 0.004788 0.029811 0.567127
2005-08-24 06:27:30 51°13.601 2°56.096 -999 0.004788 0.029811 0.567127
2005-08-24 06:27:34 51°13.601 2°56.096 -999 0.004788 0.029811 0.567127
2005-08-24 06:27:39 51°13.6 2°56.096 -999 0.004788 0.029811 0.567127
2005-08-24 06:27:44 51°13.6 2°56.096 -999 0.004788 0.029811 0.567127
2005-08-24 06:27:49 51°13.6 2°56.096 -999 0.004788 0.029811 0.567127
2005-08-24 06:27:54 51°13.6 2°56.097 -999 0.004788 0.029812 0.567127
2005-08-24 06:27:58 51°13.6 2°56.097 -999 0.004788 0.029812 0.567127
2005-08-24 06:28:03 51°13.6 2°56.097 -999 0.004788 0.029812 0.567127
2005-08-24 06:28:09 51°13.6 2°56.097 -999 0.004788 0.029812 0.567127
2005-08-24 06:28:14 51°13.599 2°56.097 -999 0.004788 0.029812 0.567127
2005-08-24 06:28:18 51°13.599 2°56.097 -999 0.004788 0.029812 0.567127
2005-08-24 06:28:23 51°13.599 2°56.096 -999 0.004788 0.029812 0.567127
2005-08-24 06:28:29 51°13.599 2°56.097 -999 0.004788 0.029812 0.567127
2005-08-24 06:28:34 51°13.599 2°56.097 -999 0.004788 0.029812 0.567127
2005-08-24 06:28:39 51°13.599 2°56.097 -999 0.004788 0.029812 0.567127
2005-08-24 06:28:44 51°13.599 2°56.096 -999 0.004788 0.029813 0.567127
2005-08-24 06:28:49 51°13.599 2°56.097 -999 0.004788 0.029813 0.567127
2005-08-24 06:28:54 51°13.599 2°56.097 -999 0.004788 0.029813 0.567127
2005-08-24 06:28:59 51°13.599 2°56.097 -999 0.004788 0.029813 0.567127
2005-08-24 06:29:04 51°13.599 2°56.097 -999 0.004788 0.029813 0.567127
2005-08-24 06:29:09 51°13.6 2°56.097 -999 0.004788 0.029813 0.567127
2005-08-24 06:29:14 51°13.6 2°56.097 -999 0.004788 0.029813 0.567127
2005-08-24 06:29:19 51°13.599 2°56.097 -999 0.004788 0.029813 0.567127
2005-08-24 06:29:24 51°13.599 2°56.097 -999 0.004788 0.029813 0.567127
2005-08-24 06:29:29 51°13.599 2°56.097 -999 0.004788 0.029813 0.567127
2005-08-24 06:29:34 51°13.599 2°56.097 -999 0.004788 0.029813 0.567127
2005-08-24 06:29:39 51°13.599 2°56.097 -999 0.004788 0.029813 0.567127
2005-08-24 06:29:44 51°13.598 2°56.096 -999 0.004788 0.029814 0.567127
2005-08-24 06:29:49 51°13.598 2°56.096 -999 0.004788 0.029814 0.567127
2005-08-24 06:29:54 51°13.598 2°56.096 -999 0.004788 0.029814 0.567127
2005-08-24 06:29:59 51°13.597 2°56.096 -999 0.004788 0.029814 0.567127
2005-08-24 06:30:03 51°13.597 2°56.095 -999 0.004788 0.029814 0.567127
2005-08-24 06:30:09 51°13.596 2°56.095 -999 0.004788 0.029814 0.567127
2005-08-24 06:30:14 51°13.596 2°56.095 -999 0.004788 0.029814 0.567127
2005-08-24 06:30:19 51°13.596 2°56.095 -999 0.004788 0.029814 0.567127
2005-08-24 06:30:23 51°13.596 2°56.095 -999 0.004788 0.029814 0.567127
2005-08-24 06:30:29 51°13.596 2°56.095 -999 0.004788 0.029814 0.567127
2005-08-24 06:30:34 51°13.596 2°56.094 -999 0.004788 0.029814 0.567127
2005-08-24 06:30:39 51°13.595 2°56.094 -999 0.004788 0.029814 0.567127
2005-08-24 06:30:44 51°13.595 2°56.095 -999 0.004788 0.029814 0.567127
2005-08-24 06:30:49 51°13.595 2°56.094 -999 0.004788 0.029814 0.567127
2005-08-24 06:30:54 51°13.595 2°56.094 -999 0.004788 0.029814 0.567127
2005-08-24 06:30:59 51°13.595 2°56.094 -999 0.004788 0.029814 0.567127
2005-08-24 06:31:03 51°13.595 2°56.094 -999 0.004788 0.029814 0.567127
2005-08-24 06:31:09 51°13.595 2°56.095 -999 0.004788 0.029814 0.567127
2005-08-24 06:31:14 51°13.595 2°56.094 -999 0.004788 0.029814 0.567127
2005-08-24 06:31:18 51°13.595 2°56.095 -999 0.004788 0.029814 0.567127
2005-08-24 06:31:23 51°13.596 2°56.095 -999 0.004788 0.029814 0.567127
2005-08-24 06:31:29 51°13.596 2°56.095 -999 0.004788 0.029814 0.567127
2005-08-24 06:31:34 51°13.596 2°56.095 -999 0.004788 0.029814 0.567127
2005-08-24 06:31:39 51°13.595 2°56.095 -999 0.004788 0.029814 0.567127
2005-08-24 06:31:44 51°13.595 2°56.095 -999 0.004788 0.029814 0.567127
2005-08-24 06:31:49 51°13.595 2°56.095 -999 0.004788 0.029814 0.567127
2005-08-24 06:31:54 51°13.595 2°56.095 -999 0.004788 0.029814 0.567127
2005-08-24 06:31:58 51°13.594 2°56.094 -999 0.004788 0.029814 0.567127
2005-08-24 06:32:04 51°13.595 2°56.094 -999 0.004788 0.029814 0.567127
2005-08-24 06:32:09 51°13.595 2°56.091 -999 0.004788 0.029814 0.567127
2005-08-24 06:32:14 51°13.596 2°56.089 -999 0.004788 0.029814 0.567127
2005-08-24 06:32:19 51°13.597 2°56.085 -999 0.004788 0.029814 0.567127
2005-08-24 06:32:24 51°13.598 2°56.08 -999 0.004788 0.029814 0.567127
2005-08-24 06:32:30 51°13.6 2°56.073 -999 0.004788 0.029814 0.567127
2005-08-24 06:32:34 51°13.602 2°56.067 -999 0.004788 0.029814 0.567127
2005-08-24 06:32:40 51°13.604 2°56.058 -999 0.004788 0.029814 0.567127
2005-08-24 06:32:45 51°13.607 2°56.05 -999 0.004788 0.029814 0.567127
2005-08-24 06:32:50 51°13.609 2°56.043 -999 0.004788 0.029814 0.567127
2005-08-24 06:32:54 51°13.611 2°56.036 -999 0.004788 0.029815 0.567127
2005-08-24 06:33:00 51°13.614 2°56.024 -999 0.004788 0.029815 0.567127
2005-08-24 06:33:03 51°13.616 2°56.018 -999 0.004788 0.029815 0.567127
2005-08-24 06:33:10 51°13.62 2°56.005 -999 0.004788 0.029815 0.567127
2005-08-24 06:33:15 51°13.623 2°55.996 -999 0.004788 0.029815 0.567127
2005-08-24 06:33:20 51°13.627 2°55.986 -999 0.004788 0.029815 0.567127
2005-08-24 06:33:25 51°13.63 2°55.975 -999 0.004788 0.029815 0.533418
2005-08-24 06:33:30 51°13.634 2°55.965 -999 0.004788 0.029815 0.567127
2005-08-24 06:33:35 51°13.637 2°55.955 -999 0.004788 0.029815 0.567127
2005-08-24 06:33:39 51°13.641 2°55.946 -999 0.004788 0.029815 0.567127
2005-08-24 06:33:44 51°13.644 2°55.936 -999 0.004788 0.029815 0.567127
2005-08-24 06:33:50 51°13.649 2°55.924 -999 0.004788 0.029815 0.567127
2005-08-24 06:33:54 51°13.652 2°55.917 -999 0.004788 0.029815 0.567127
2005-08-24 06:34:00 51°13.656 2°55.905 -999 0.004788 0.029815 0.567127
2005-08-24 06:34:05 51°13.659 2°55.896 -999 0.004788 0.029816 0.567127
2005-08-24 06:34:10 51°13.662 2°55.885 -999 0.004788 0.029816 0.567127
2005-08-24 06:34:15 51°13.665 2°55.877 -999 0.004788 0.029816 0.567127
2005-08-24 06:34:19 51°13.667 2°55.869 -999 0.004788 0.029816 0.567127
2005-08-24 06:34:24 51°13.669 2°55.861 -999 0.004685 0.02933 0.567127
2005-08-24 06:34:30 51°13.672 2°55.851 -999 0.004788 0.029816 0.567127
2005-08-24 06:34:34 51°13.673 2°55.843 -999 0.004788 0.029816 0.567127
2005-08-24 06:34:38 51°13.675 2°55.836 -999 0.004685 0.02933 0.567127
2005-08-24 06:34:43 51°13.676 2°55.828 -999 0.004788 0.029816 0.567127
2005-08-24 06:34:50 51°13.678 2°55.818 -999 0.004788 0.029816 0.567127
2005-08-24 06:34:54 51°13.679 2°55.812 -999 0.004788 0.029816 0.567127
2005-08-24 06:34:59 51°13.68 2°55.803 -999 0.004788 0.029816 0.567127
2005-08-24 06:35:03 51°13.681 2°55.797 -999 0.004788 0.029816 0.567127
2005-08-24 06:35:10 51°13.682 2°55.787 -999 0.004788 0.029817 0.567127
2005-08-24 06:35:14 51°13.682 2°55.78 -999 0.004788 0.029817 0.567127
2005-08-24 06:35:19 51°13.683 2°55.772 -999 0.004788 0.029817 0.567127
2005-08-24 06:35:25 51°13.683 2°55.763 -999 0.004685 0.029331 0.567127
2005-08-24 06:35:30 51°13.683 2°55.757 -999 0.004788 0.029817 0.567127
2005-08-24 06:35:34 51°13.683 2°55.754 -999 0.004685 0.029331 0.567127
2005-08-24 06:35:39 51°13.684 2°55.748 -999 0.004685 0.029331 0.533418
2005-08-24 06:35:45 51°13.684 2°55.745 -999 0.004685 0.029331 0.567127
2005-08-24 06:35:49 51°13.684 2°55.743 -999 0.004685 0.029331 0.567127
2005-08-24 06:35:54 51°13.685 2°55.743 -999 0.004685 0.029332 0.567127
2005-08-24 06:35:59 51°13.685 2°55.743 -999 0.004685 0.029332 0.567127
2005-08-24 06:36:03 51°13.686 2°55.743 -999 0.004685 0.029332 0.567127
2005-08-24 06:36:10 51°13.688 2°55.744 -999 0.004788 0.029818 0.567127
2005-08-24 06:36:14 51°13.689 2°55.746 -999 0.004685 0.029332 0.567127
2005-08-24 06:36:20 51°13.692 2°55.748 -999 0.004685 0.029332 0.567127
2005-08-24 06:36:22 51°13.693 2°55.749 -999 0.004685 0.029332 0.567127
2005-08-24 06:36:29 51°13.697 2°55.751 -999 0.004685 0.029332 0.567127
2005-08-24 06:36:34 51°13.701 2°55.752 -999 0.004685 0.029332 0.567127
2005-08-24 06:36:39 51°13.707 2°55.752 -999 0.004685 0.029332 0.567127
2005-08-24 06:36:44 51°13.713 2°55.751 -999 0.004685 0.029332 0.567127
2005-08-24 06:36:49 51°13.719 2°55.749 -999 0.004685 0.029332 0.567127
2005-08-24 06:36:54 51°13.725 2°55.744 -999 0.004685 0.029333 0.533418
2005-08-24 06:36:58 51°13.729 2°55.74 -999 0.004685 0.029333 0.533418
2005-08-24 06:37:04 51°13.736 2°55.734 -999 0.004685 0.029333 0.567127
2005-08-24 06:37:09 51°13.743 2°55.727 -999 0.004685 0.029333 0.533418
2005-08-24 06:37:14 51°13.748 2°55.72 -999 0.004685 0.029333 0.533418
2005-08-24 06:37:19 51°13.755 2°55.712 -999 0.004685 0.029333 0.533418
2005-08-24 06:37:23 51°13.761 2°55.705 -999 0.004685 0.029345 0.567127
2005-08-24 06:37:29 51°13.77 2°55.694 -999 0.004685 0.029351 0.499708
2005-08-24 06:37:34 51°13.777 2°55.686 -999 2.319055 15.299682 5.859503
2005-08-24 06:37:39 51°13.785 2°55.676 -999 2.696365 17.874411 3.634683
2005-08-24 06:37:44 51°13.796 2°55.666 -999 2.419758 15.920525 2.252597
2005-08-24 06:37:49 51°13.806 2°55.657 -999 2.419758 15.920525 2.252597
2005-08-24 06:37:54 51°13.815 2°55.65 -999 3.304821 22.58962 -0.107061
2005-08-24 06:37:59 51°13.827 2°55.639 -999 3.491256 24.238978 -0.275608
2005-08-24 06:38:04 51°13.837 2°55.631 -999 3.539304 24.854178 -0.275608
2005-08-24 06:38:09 51°13.849 2°55.622 -999 3.576276 25.353529 -0.275608
2005-08-24 06:38:14 51°13.861 2°55.612 -999 3.588809 25.583874 -0.275608
2005-08-24 06:38:19 51°13.872 2°55.605 -999 3.588809 25.583874 -0.275608
2005-08-24 06:38:24 51°13.884 2°55.595 -999 3.625887 25.977536 -0.241899
2005-08-24 06:38:29 51°13.896 2°55.586 -999 3.640595 26.167442 -0.208189
2005-08-24 06:38:34 51°13.907 2°55.577 -999 3.655718 26.340629 -0.17448
2005-08-24 06:38:39 51°13.921 2°55.567 -999 3.669805 26.493392 -0.17448
2005-08-24 06:38:42 51°13.927 2°55.563 -999 3.686585 26.669317 -0.14077
2005-08-24 06:38:49 51°13.946 2°55.549 -999 3.686585 26.669317 -0.14077
2005-08-24 06:38:54 51°13.957 2°55.541 -999 3.704195 26.841956 -0.107061
2005-08-24 06:38:59 51°13.969 2°55.531 -999 3.720666 26.996269 -0.107061
2005-08-24 06:39:03 51°13.98 2°55.523 -999 3.73838 27.157369 -0.14077
2005-08-24 06:39:09 51°13.995 2°55.512 -999 3.750398 27.269713 -0.17448
2005-08-24 06:39:14 51°14.007 2°55.503 -999 3.765627 27.404046 -0.17448
2005-08-24 06:39:19 51°14.021 2°55.493 -999 3.765627 27.404046 -0.17448
2005-08-24 06:39:24 51°14.034 2°55.484 -999 3.77951 27.525079 -0.208189
2005-08-24 06:39:29 51°14.047 2°55.474 -999 3.793185 27.641444 -0.241899
2005-08-24 06:39:34 51°14.058 2°55.466 -999 3.798366 27.689129 -0.241899
2005-08-24 06:39:39 51°14.072 2°55.456 -999 3.802096 27.726667 -0.275608
2005-08-24 06:39:44 51°14.086 2°55.445 -999 3.799506 27.713028 -0.275608
2005-08-24 06:39:49 51°14.099 2°55.436 -999 3.799506 27.713028 -0.275608
2005-08-24 06:39:54 51°14.111 2°55.426 -999 3.79733 27.701168 -0.309317
2005-08-24 06:39:59 51°14.125 2°55.416 -999 3.80479 27.764767 -0.343027
2005-08-24 06:40:03 51°14.137 2°55.407 -999 3.798988 27.718271 -0.343027
2005-08-24 06:40:09 51°14.154 2°55.394 -999 3.798885 27.723203 -0.343027
2005-08-24 06:40:14 51°14.166 2°55.382 -999 3.789871 27.655395 -0.343027
2005-08-24 06:40:19 51°14.18 2°55.368 -999 3.789871 27.655395 -0.343027
2005-08-24 06:40:24 51°14.193 2°55.353 -999 3.785002 27.622738 -0.343027
2005-08-24 06:40:29 51°14.206 2°55.337 -999 3.785416 27.6329 -0.343027
2005-08-24 06:40:34 51°14.217 2°55.323 -999 3.788628 27.66313 -0.309317
2005-08-24 06:40:39 51°14.229 2°55.306 -999 3.79184 27.694423 -0.309317
2005-08-24 06:40:44 51°14.242 2°55.288 -999 3.804584 27.801505 -0.309317
2005-08-24 06:40:49 51°14.253 2°55.27 -999 3.804584 27.801505 -0.309317
2005-08-24 06:40:54 51°14.265 2°55.252 -999 3.802926 27.793847 -0.309317
2005-08-24 06:40:58 51°14.273 2°55.237 -999 3.791115 27.701668 -0.343027
2005-08-24 06:41:03 51°14.284 2°55.217 -999 3.797124 27.752017 -0.343027
2005-08-24 06:41:09 51°14.297 2°55.194 -999 3.783966 27.646811 -0.343027
2005-08-24 06:41:14 51°14.307 2°55.176 -999 3.767908 27.519174 -0.376736
2005-08-24 06:41:18 51°14.315 2°55.159 -999 3.767908 27.519174 -0.376736
2005-08-24 06:41:23 51°14.326 2°55.138 -999 3.756616 27.430226 -0.376736
2005-08-24 06:41:30 51°14.34 2°55.109 -999 3.751643 27.393038 -0.376736
2005-08-24 06:41:34 51°14.347 2°55.091 -999 3.759413 27.459152 -0.410446
2005-08-24 06:41:39 51°14.358 2°55.067 -999 3.766354 27.51649 -0.410446
2005-08-24 06:41:44 51°14.368 2°55.044 -999 3.779615 27.625134 -0.410446
2005-08-24 06:41:49 51°14.377 2°55.021 -999 3.779615 27.625134 -0.410446
2005-08-24 06:41:54 51°14.386 2°55 -999 3.793498 27.739947 -0.410446
2005-08-24 06:41:59 51°14.397 2°54.975 -999 3.797435 27.772451 -0.410446
2005-08-24 06:42:03 51°14.405 2°54.957 -999 3.796606 27.768354 -0.410446
2005-08-24 06:42:09 51°14.418 2°54.932 -999 3.787903 27.700826 -0.410446
2005-08-24 06:42:14 51°14.429 2°54.914 -999 3.791426 27.732595 -0.410446
2005-08-24 06:42:19 51°14.443 2°54.895 -999 3.791426 27.732595 -0.410446
2005-08-24 06:42:24 51°14.458 2°54.877 -999 3.794638 27.758161 -0.376736
2005-08-24 06:42:29 51°14.472 2°54.86 -999 3.843025 28.160741 -0.309317
2005-08-24 06:42:34 51°14.485 2°54.846 -999 3.903231 28.671724 -0.309317
2005-08-24 06:42:39 51°14.501 2°54.828 -999 3.945723 29.038414 -0.309317
2005-08-24 06:42:44 51°14.515 2°54.811 -999 3.989877 29.414784 -0.309317
2005-08-24 06:42:49 51°14.529 2°54.795 -999 3.989877 29.414784 -0.309317
2005-08-24 06:42:54 51°14.542 2°54.78 -999 4.011437 29.605311 -0.275608
2005-08-24 06:42:59 51°14.557 2°54.763 -999 4.030303 29.772867 -0.275608
2005-08-24 06:43:03 51°14.569 2°54.748 -999 4.034761 29.821486 -0.241899
2005-08-24 06:43:09 51°14.586 2°54.728 -999 4.057049 30.018764 -0.241899
2005-08-24 06:43:14 51°14.6 2°54.711 -999 4.070423 30.142255 -0.241899
2005-08-24 06:43:19 51°14.613 2°54.695 -999 4.070423 30.142255 -0.241899
2005-08-24 06:43:24 51°14.629 2°54.677 -999 4.07685 30.204525 -0.241899
2005-08-24 06:43:30 51°14.645 2°54.659 -999 4.084522 30.277123 -0.275608
2005-08-24 06:43:34 51°14.658 2°54.644 -999 4.090432 30.329998 -0.275608
2005-08-24 06:43:39 51°14.672 2°54.627 -999 4.089292 30.321156 -0.309317
2005-08-24 06:43:43 51°14.682 2°54.616 -999 4.096549 30.379963 -0.275608
2005-08-24 06:43:49 51°14.7 2°54.594 -999 4.096549 30.379963 -0.275608
2005-08-24 06:43:54 51°14.715 2°54.578 -999 4.109612 30.487365 -0.275608
2005-08-24 06:43:59 51°14.729 2°54.561 -999 4.114485 30.527659 -0.309317
2005-08-24 06:44:04 51°14.744 2°54.544 -999 4.121743 30.588857 -0.309317
2005-08-24 06:44:09 51°14.758 2°54.526 -999 4.127342 30.638697 -0.309317
2005-08-24 06:44:14 51°14.774 2°54.51 -999 4.117389 30.559855 -0.309317
2005-08-24 06:44:19 51°14.788 2°54.493 -999 4.117389 30.559855 -0.309317
2005-08-24 06:44:23 51°14.801 2°54.48 -999 4.121432 30.597409 -0.343027
2005-08-24 06:44:29 51°14.819 2°54.46 -999 4.128483 30.659284 -0.343027
2005-08-24 06:44:34 51°14.834 2°54.445 -999 4.129727 30.674284 -0.343027
2005-08-24 06:44:39 51°14.851 2°54.427 -999 4.132838 30.705922 -0.376736
2005-08-24 06:44:43 51°14.863 2°54.414 -999 4.132112 30.704616 -0.376736
2005-08-24 06:44:49 51°14.883 2°54.394 -999 4.132112 30.704616 -0.376736
2005-08-24 06:44:54 51°14.897 2°54.38 -999 4.135637 30.739712 -0.376736
2005-08-24 06:44:59 51°14.914 2°54.362 -999 4.134497 30.73674 -0.376736
2005-08-24 06:45:04 51°14.93 2°54.346 -999 4.129728 30.701922 -0.376736
2005-08-24 06:45:09 51°14.946 2°54.33 -999 4.133357 30.737305 -0.376736
2005-08-24 06:45:14 51°14.96 2°54.315 -999 4.127136 30.689855 -0.376736
2005-08-24 06:45:19 51°14.976 2°54.299 -999 4.127136 30.689855 -0.376736
2005-08-24 06:45:23 51°14.99 2°54.285 -999 4.117389 30.612601 -0.410446
2005-08-24 06:45:29 51°15.01 2°54.267 -999 4.114383 30.587097 -0.410446
2005-08-24 06:45:34 51°15.026 2°54.251 -999 4.120915 30.633004 -0.410446
2005-08-24 06:45:39 51°15.043 2°54.236 -999 4.153161 30.884971 -0.410446
2005-08-24 06:45:43 51°15.056 2°54.225 -999 4.183439 31.120688 -0.444155
2005-08-24 06:45:49 51°15.075 2°54.207 -999 4.183439 31.120688 -0.444155
2005-08-24 06:45:54 51°15.092 2°54.192 -999 4.203038 31.269004 -0.444155
2005-08-24 06:45:59 51°15.108 2°54.178 -999 4.226268 31.452869 -0.444155
2005-08-24 06:46:04 51°15.125 2°54.163 -999 4.235394 31.522644 -0.477864
2005-08-24 06:46:09 51°15.141 2°54.147 -999 4.244728 31.597167 -0.477864
2005-08-24 06:46:14 51°15.157 2°54.132 -999 4.248565 31.627842 -0.511574
2005-08-24 06:46:19 51°15.172 2°54.117 -999 4.248565 31.627842 -0.511574
2005-08-24 06:46:23 51°15.186 2°54.103 -999 4.255307 31.684474 -0.511574
2005-08-24 06:46:29 51°15.205 2°54.083 -999 4.253647 31.6725 -0.511574
2005-08-24 06:46:34 51°15.221 2°54.066 -999 4.258626 31.717526 -0.545283
2005-08-24 06:46:39 51°15.236 2°54.051 -999 4.260181 31.732892 -0.545283
2005-08-24 06:46:44 51°15.253 2°54.034 -999 4.264434 31.772514 -0.545283
2005-08-24 06:46:49 51°15.269 2°54.018 -999 4.264434 31.772514 -0.545283
2005-08-24 06:46:54 51°15.284 2°54.004 -999 4.268168 31.806011 -0.545283
2005-08-24 06:46:59 51°15.302 2°53.987 -999 4.27408 31.856424 -0.545283
2005-08-24 06:47:03 51°15.314 2°53.977 -999 4.277813 31.885058 -0.545283
2005-08-24 06:47:09 51°15.335 2°53.957 -999 4.280925 31.906679 -0.511574
2005-08-24 06:47:14 51°15.351 2°53.942 -999 4.27242 31.832249 -0.477864
2005-08-24 06:47:19 51°15.367 2°53.926 -999 4.27242 31.832249 -0.477864
2005-08-24 06:47:24 51°15.383 2°53.91 -999 4.27439 31.844985 -0.477864
2005-08-24 06:47:29 51°15.399 2°53.895 -999 4.27076 31.812963 -0.511574
2005-08-24 06:47:34 51°15.415 2°53.879 -999 4.271486 31.824484 -0.545283
2005-08-24 06:47:39 51°15.431 2°53.863 -999 4.265367 31.785757 -0.578993
2005-08-24 06:47:42 51°15.439 2°53.855 -999 4.259456 31.749956 -0.612702
2005-08-24 06:47:49 51°15.463 2°53.832 -999 4.259456 31.749956 -0.612702
2005-08-24 06:47:54 51°15.477 2°53.818 -999 4.245766 31.647585 -0.612702
2005-08-24 06:47:59 51°15.494 2°53.802 -999 4.239336 31.601967 -0.578993
2005-08-24 06:48:04 51°15.509 2°53.786 -999 4.239128 31.608121 -0.578993
2005-08-24 06:48:09 51°15.527 2°53.769 -999 4.229898 31.534947 -0.578993
2005-08-24 06:48:14 51°15.541 2°53.754 -999 4.228343 31.524423 -0.612702
2005-08-24 06:48:19 51°15.558 2°53.736 -999 4.228343 31.524423 -0.612702
2005-08-24 06:48:22 51°15.566 2°53.729 -999 4.224402 31.492843 -0.578993
2005-08-24 06:48:29 51°15.588 2°53.707 -999 4.218387 31.442807 -0.612702
2005-08-24 06:48:34 51°15.605 2°53.692 -999 4.216624 31.427541 -0.578993
2005-08-24 06:48:39 51°15.621 2°53.676 -999 4.217143 31.430647 -0.578993
2005-08-24 06:48:44 51°15.639 2°53.659 -999 4.215068 31.41159 -0.578993
2005-08-24 06:48:49 51°15.655 2°53.645 -999 4.215068 31.41159 -0.578993
2005-08-24 06:48:53 51°15.668 2°53.634 -999 4.212372 31.387364 -0.545283
2005-08-24 06:48:59 51°15.687 2°53.618 -999 4.212683 31.387543 -0.511574
2005-08-24 06:49:03 51°15.701 2°53.606 -999 4.216935 31.419279 -0.477864
2005-08-24 06:49:10 51°15.723 2°53.589 -999 4.209779 31.35739 -0.511574
2005-08-24 06:49:14 51°15.736 2°53.578 -999 4.214757 31.399969 -0.511574
2005-08-24 06:49:19 51°15.754 2°53.563 -999 4.214757 31.399969 -0.511574
2005-08-24 06:49:24 51°15.77 2°53.55 -999 4.210402 31.36617 -0.545283
2005-08-24 06:49:29 51°15.788 2°53.535 -999 4.20335 31.309962 -0.545283
2005-08-24 06:49:34 51°15.803 2°53.523 -999 4.205735 31.329786 -0.545283
2005-08-24 06:49:39 51°15.819 2°53.509 -999 4.199513 31.275678 -0.545283
2005-08-24 06:49:44 51°15.838 2°53.495 -999 4.196713 31.250018 -0.545283
2005-08-24 06:49:49 51°15.855 2°53.482 -999 4.196713 31.250018 -0.545283
2005-08-24 06:49:54 51°15.872 2°53.469 -999 4.198061 31.258221 -0.511574
2005-08-24 06:49:59 51°15.888 2°53.458 -999 4.196609 31.244364 -0.444155
2005-08-24 06:50:03 51°15.903 2°53.446 -999 4.19692 31.244552 -0.410446
2005-08-24 06:50:10 51°15.925 2°53.429 -999 4.202313 31.288144 -0.444155
2005-08-24 06:50:14 51°15.941 2°53.418 -999 4.198787 31.257659 -0.444155
2005-08-24 06:50:19 51°15.958 2°53.405 -999 4.198787 31.257659 -0.444155
2005-08-24 06:50:24 51°15.974 2°53.393 -999 4.201172 31.275671 -0.444155
2005-08-24 06:50:29 51°15.992 2°53.379 -999 4.201275 31.274135 -0.444155
2005-08-24 06:50:34 51°16.008 2°53.367 -999 4.192565 31.20001 -0.410446
2005-08-24 06:50:39 51°16.026 2°53.354 -999 4.200238 31.26073 -0.410446
2005-08-24 06:50:44 51°16.044 2°53.341 -999 4.200446 31.260057 -0.376736
2005-08-24 06:50:49 51°16.062 2°53.328 -999 4.200446 31.260057 -0.376736
2005-08-24 06:50:54 51°16.079 2°53.315 -999 4.204905 31.294686 -0.376736
2005-08-24 06:50:59 51°16.095 2°53.304 -999 4.203142 31.27825 -0.376736
2005-08-24 06:51:03 51°16.111 2°53.293 -999 4.206771 31.307187 -0.376736
2005-08-24 06:51:10 51°16.133 2°53.276 -999 4.207912 31.31666 -0.410446
2005-08-24 06:51:14 51°16.147 2°53.266 -999 4.207601 31.315276 -0.444155
2005-08-24 06:51:19 51°16.166 2°53.252 -999 4.207601 31.315276 -0.444155
2005-08-24 06:51:24 51°16.184 2°53.24 -999 4.208534 31.323026 -0.477864
2005-08-24 06:51:29 51°16.201 2°53.228 -999 4.209571 31.331638 -0.477864
2005-08-24 06:51:34 51°16.217 2°53.217 -999 4.209675 31.331299 -0.477864
2005-08-24 06:51:39 51°16.236 2°53.203 -999 4.210401 31.337328 -0.477864
2005-08-24 06:51:44 51°16.252 2°53.191 -999 4.212786 31.357136 -0.477864
2005-08-24 06:51:49 51°16.271 2°53.178 -999 4.212786 31.357136 -0.477864
2005-08-24 06:51:54 51°16.287 2°53.167 -999 4.210505 31.338789 -0.511574
2005-08-24 06:51:59 51°16.307 2°53.154 -999 4.212164 31.35317 -0.511574
2005-08-24 06:52:02 51°16.315 2°53.148 -999 4.209157 31.329994 -0.545283
2005-08-24 06:52:09 51°16.342 2°53.13 -999 4.21372 31.370297 -0.578993
2005-08-24 06:52:14 51°16.357 2°53.118 -999 4.214135 31.375546 -0.545283
2005-08-24 06:52:18 51°16.371 2°53.109 -999 4.214135 31.375546 -0.545283
2005-08-24 06:52:24 51°16.394 2°53.093 -999 4.210505 31.347196 -0.578993
2005-08-24 06:52:30 51°16.414 2°53.079 -999 4.216001 31.395265 -0.578993
2005-08-24 06:52:34 51°16.428 2°53.07 -999 4.218075 31.414909 -0.578993
2005-08-24 06:52:39 51°16.446 2°53.056 -999 4.221601 31.446023 -0.578993
2005-08-24 06:52:44 51°16.464 2°53.042 -999 4.224505 31.471368 -0.612702
2005-08-24 06:52:49 51°16.48 2°53.029 -999 4.224505 31.471368 -0.612702
2005-08-24 06:52:54 51°16.496 2°53.017 -999 4.231661 31.531471 -0.612702
2005-08-24 06:52:58 51°16.509 2°53.007 -999 4.239128 31.592366 -0.612702
2005-08-24 06:53:04 51°16.532 2°52.99 -999 4.249396 31.675967 -0.646411
2005-08-24 06:53:09 51°16.549 2°52.977 -999 4.2523 31.697094 -0.646411
2005-08-24 06:53:14 51°16.564 2°52.966 -999 4.260389 31.757116 -0.612702
2005-08-24 06:53:19 51°16.582 2°52.953 -999 4.260389 31.757116 -0.612702
2005-08-24 06:53:24 51°16.6 2°52.94 -999 4.256448 31.715813 -0.612702
2005-08-24 06:53:29 51°16.618 2°52.928 -999 4.265886 31.783375 -0.578993
2005-08-24 06:53:34 51°16.635 2°52.916 -999 4.27076 31.815399 -0.578993
2005-08-24 06:53:39 51°16.653 2°52.904 -999 4.27159 31.814992 -0.578993
2005-08-24 06:53:43 51°16.666 2°52.894 -999 4.268271 31.78192 -0.612702
2005-08-24 06:53:49 51°16.687 2°52.879 -999 4.268271 31.78192 -0.612702
2005-08-24 06:53:54 51°16.702 2°52.867 -999 4.265885 31.758443 -0.612702
2005-08-24 06:53:59 51°16.72 2°52.854 -999 4.274494 31.827571 -0.646411
2005-08-24 06:54:04 51°16.738 2°52.841 -999 4.272938 31.814028 -0.646411
2005-08-24 06:54:09 51°16.756 2°52.829 -999 4.275116 31.832135 -0.680121
2005-08-24 06:54:14 51°16.771 2°52.818 -999 4.275738 31.839137 -0.680121
2005-08-24 06:54:19 51°16.79 2°52.804 -999 4.275738 31.839137 -0.680121
2005-08-24 06:54:22 51°16.798 2°52.798 -999 4.276257 31.844667 -0.680121
2005-08-24 06:54:29 51°16.824 2°52.779 -999 4.275531 31.840458 -0.680121
2005-08-24 06:54:34 51°16.839 2°52.768 -999 4.273664 31.826152 -0.680121
2005-08-24 06:54:38 51°16.853 2°52.758 -999 4.278746 31.869634 -0.680121
2005-08-24 06:54:44 51°16.876 2°52.74 -999 4.276361 31.851014 -0.680121
2005-08-24 06:54:50 51°16.895 2°52.726 -999 4.276361 31.851014 -0.680121
2005-08-24 06:54:54 51°16.909 2°52.716 -999 4.277709 31.862837 -0.680121
2005-08-24 06:54:59 51°16.928 2°52.702 -999 4.282584 31.903996 -0.680121
2005-08-24 06:55:02 51°16.937 2°52.696 -999 4.283725 31.914098 -0.680121
2005-08-24 06:55:10 51°16.964 2°52.677 -999 4.285385 31.927905 -0.71383
2005-08-24 06:55:14 51°16.979 2°52.666 -999 4.288807 31.95516 -0.71383
2005-08-24 06:55:18 51°16.992 2°52.656 -999 4.288807 31.95516 -0.71383
2005-08-24 06:55:23 51°17.009 2°52.643 -999 4.291919 31.979217 -0.71383
2005-08-24 06:55:29 51°17.03 2°52.628 -999 4.29389 31.993779 -0.74754
2005-08-24 06:55:34 51°17.045 2°52.616 -999 4.293682 31.991441 -0.74754
2005-08-24 06:55:39 51°17.062 2°52.603 -999 4.295446 32.005502 -0.74754
2005-08-24 06:55:43 51°17.077 2°52.592 -999 4.296898 32.017586 -0.74754
2005-08-24 06:55:49 51°17.098 2°52.577 -999 4.296898 32.017586 -0.74754
2005-08-24 06:55:54 51°17.114 2°52.566 -999 4.300009 32.043483 -0.74754
2005-08-24 06:55:59 51°17.132 2°52.552 -999 4.30364 32.074927 -0.74754
2005-08-24 06:56:04 51°17.148 2°52.541 -999 4.303432 32.073201 -0.74754
2005-08-24 06:56:09 51°17.166 2°52.526 -999 4.302603 32.06752 -0.74754
2005-08-24 06:56:14 51°17.181 2°52.515 -999 4.302603 32.068748 -0.74754
2005-08-24 06:56:19 51°17.2 2°52.5 -999 4.302603 32.068748 -0.74754
2005-08-24 06:56:22 51°17.209 2°52.494 -999 4.303329 32.076634 -0.74754
2005-08-24 06:56:29 51°17.234 2°52.473 -999 4.303329 32.077862 -0.74754
2005-08-24 06:56:34 51°17.249 2°52.461 -999 4.307374 32.112159 -0.74754
2005-08-24 06:56:39 51°17.267 2°52.448 -999 4.308619 32.123139 -0.74754
2005-08-24 06:56:44 51°17.285 2°52.434 -999 4.309345 32.129801 -0.74754
2005-08-24 06:56:49 51°17.303 2°52.421 -999 4.309345 32.129801 -0.74754
2005-08-24 06:56:54 51°17.32 2°52.408 -999 4.308204 32.119684 -0.74754
2005-08-24 06:56:59 51°17.335 2°52.395 -999 4.309967 32.133139 -0.74754
2005-08-24 06:57:03 51°17.35 2°52.383 -999 4.309656 32.129933 -0.74754
2005-08-24 06:57:09 51°17.37 2°52.365 -999 4.310071 32.134003 -0.74754
2005-08-24 06:57:14 51°17.385 2°52.347 -999 4.306544 32.105249 -0.74754
2005-08-24 06:57:19 51°17.397 2°52.329 -999 4.306544 32.105249 -0.74754
2005-08-24 06:57:24 51°17.411 2°52.309 -999 4.304988 32.092294 -0.74754
2005-08-24 06:57:29 51°17.424 2°52.286 -999 4.303536 32.082045 -0.74754
2005-08-24 06:57:34 51°17.437 2°52.264 -999 4.307893 32.120782 -0.74754
2005-08-24 06:57:39 51°17.449 2°52.242 -999 4.304885 32.098189 -0.74754
2005-08-24 06:57:44 51°17.461 2°52.218 -999 4.304366 32.095713 -0.781249
2005-08-24 06:57:49 51°17.473 2°52.195 -999 4.304366 32.095713 -0.781249
2005-08-24 06:57:54 51°17.484 2°52.171 -999 4.305611 32.107924 -0.74754
2005-08-24 06:57:59 51°17.495 2°52.147 -999 4.304781 32.102857 -0.74754
2005-08-24 06:58:04 51°17.506 2°52.122 -999 4.30001 32.064345 -0.74754
2005-08-24 06:58:09 51°17.516 2°52.098 -999 4.30084 32.071256 -0.74754
2005-08-24 06:58:14 51°17.526 2°52.076 -999 4.300632 32.069528 -0.74754
2005-08-24 06:58:19 51°17.536 2°52.049 -999 4.300632 32.069528 -0.74754
2005-08-24 06:58:23 51°17.546 2°52.028 -999 4.298765 32.054593 -0.74754
2005-08-24 06:58:29 51°17.558 2°51.997 -999 4.299076 32.056571 -0.74754
2005-08-24 06:58:34 51°17.568 2°51.972 -999 4.29472 32.020906 -0.74754
2005-08-24 06:58:38 51°17.575 2°51.951 -999 4.295446 32.028179 -0.74754
2005-08-24 06:58:43 51°17.585 2°51.925 -999 4.30084 32.073713 -0.74754
2005-08-24 06:58:49 51°17.597 2°51.894 -999 4.30084 32.073713 -0.74754
2005-08-24 06:58:54 51°17.606 2°51.867 -999 4.300425 32.069029 -0.74754
2005-08-24 06:58:59 51°17.616 2°51.842 -999 4.295965 32.030044 -0.74754
2005-08-24 06:59:03 51°17.623 2°51.821 -999 4.299076 32.055957 -0.74754
2005-08-24 06:59:09 51°17.635 2°51.79 -999 4.296691 32.035477 -0.74754
2005-08-24 06:59:14 51°17.643 2°51.766 -999 4.299802 32.060776 -0.74754
2005-08-24 06:59:18 51°17.651 2°51.742 -999 4.299802 32.060776 -0.74754
2005-08-24 06:59:24 51°17.661 2°51.71 -999 4.29223 31.997115 -0.74754
2005-08-24 06:59:29 51°17.67 2°51.684 -999 4.303744 32.092988 -0.74754
2005-08-24 06:59:34 51°17.679 2°51.657 -999 4.304885 32.103106 -0.781249
2005-08-24 06:59:39 51°17.688 2°51.631 -999 4.304574 32.102359 -0.781249
2005-08-24 06:59:43 51°17.695 2°51.609 -999 4.295653 32.029293 -0.781249
2005-08-24 06:59:49 51°17.706 2°51.578 -999 4.295653 32.029293 -0.781249
2005-08-24 06:59:54 51°17.715 2°51.554 -999 4.295653 32.029906 -0.74754
2005-08-24 06:59:59 51°17.724 2°51.527 -999 4.304781 32.105316 -0.74754
2005-08-24 07:00:04 51°17.734 2°51.498 -999 4.301358 32.07619 -0.74754
2005-08-24 07:00:09 51°17.742 2°51.471 -999 4.303951 32.09656 -0.74754
2005-08-24 07:00:14 51°17.752 2°51.445 -999 4.305507 32.10829 -0.74754
2005-08-24 07:00:19 51°17.761 2°51.418 -999 4.305507 32.10829 -0.74754
2005-08-24 07:00:24 51°17.77 2°51.392 -999 4.301151 32.072005 -0.74754
2005-08-24 07:00:29 51°17.779 2°51.365 -999 4.298143 32.046955 -0.74754
2005-08-24 07:00:34 51°17.788 2°51.338 -999 4.305611 32.109154 -0.74754
2005-08-24 07:00:39 51°17.796 2°51.314 -999 4.305611 32.109769 -0.74754
2005-08-24 07:00:44 51°17.806 2°51.285 -999 4.301773 32.077803 -0.71383
2005-08-24 07:00:50 51°17.816 2°51.256 -999 4.301773 32.077803 -0.71383
2005-08-24 07:00:54 51°17.825 2°51.232 -999 4.304677 32.101993 -0.71383
2005-08-24 07:00:58 51°17.832 2°51.21 -999 4.30976 32.143717 -0.71383
2005-08-24 07:01:04 51°17.842 2°51.178 -999 4.311316 32.156064 -0.71383
2005-08-24 07:01:09 51°17.852 2°51.151 -999 4.298869 32.05116 -0.74754
2005-08-24 07:01:14 51°17.861 2°51.124 -999 4.306544 32.115085 -0.71383
2005-08-24 07:01:18 51°17.867 2°51.105 -999 4.306544 32.115085 -0.71383
2005-08-24 07:01:24 51°17.879 2°51.071 -999 4.307685 32.123974 -0.71383
2005-08-24 07:01:30 51°17.889 2°51.042 -999 4.314116 32.176934 -0.71383
2005-08-24 07:01:34 51°17.896 2°51.017 -999 4.30198 32.075231 -0.71383
2005-08-24 07:01:38 51°17.904 2°50.996 -999 4.315361 32.185456 -0.71383
2005-08-24 07:01:42 51°17.91 2°50.977 -999 4.312768 32.163236 -0.71383
2005-08-24 07:01:50 51°17.924 2°50.934 -999 4.312768 32.163236 -0.71383
2005-08-24 07:01:54 51°17.931 2°50.913 -999 4.311627 32.1525 -0.71383
2005-08-24 07:01:59 51°17.941 2°50.883 -999 4.312249 32.157068 -0.74754
2005-08-24 07:02:02 51°17.946 2°50.867 -999 4.319925 32.221017 -0.74754
2005-08-24 07:02:09 51°17.958 2°50.829 -999 4.323348 32.249541 -0.71383
2005-08-24 07:02:14 51°17.966 2°50.804 -999 4.325838 32.269671 -0.71383
2005-08-24 07:02:19 51°17.974 2°50.777 -999 4.325838 32.269671 -0.71383
2005-08-24 07:02:23 51°17.981 2°50.753 -999 4.32366 32.252135 -0.71383
2005-08-24 07:02:29 51°17.991 2°50.72 -999 4.328224 32.292028 -0.71383
2005-08-24 07:02:34 51°17.998 2°50.692 -999 4.332892 32.330941 -0.71383
2005-08-24 07:02:39 51°18.006 2°50.665 -999 4.332269 32.326371 -0.71383
2005-08-24 07:02:43 51°18.013 2°50.643 -999 4.333825 32.339963 -0.71383
2005-08-24 07:02:49 51°18.023 2°50.61 -999 4.333825 32.339963 -0.71383
2005-08-24 07:02:54 51°18.031 2°50.583 -999 4.333307 32.335639 -0.71383
2005-08-24 07:02:59 51°18.039 2°50.556 -999 4.330298 32.309941 -0.74754
2005-08-24 07:03:04 51°18.047 2°50.528 -999 4.334655 32.345643 -0.74754
2005-08-24 07:03:09 51°18.054 2°50.501 -999 4.331751 32.319572 -0.74754
2005-08-24 07:03:14 51°18.062 2°50.473 -999 4.335485 32.348846 -0.74754
2005-08-24 07:03:19 51°18.069 2°50.448 -999 4.335485 32.348846 -0.74754
2005-08-24 07:03:24 51°18.078 2°50.419 -999 4.335174 32.345013 -0.74754
2005-08-24 07:03:29 51°18.086 2°50.391 -999 4.339323 32.378366 -0.74754
2005-08-24 07:03:34 51°18.094 2°50.364 -999 4.335692 32.34624 -0.71383
2005-08-24 07:03:39 51°18.102 2°50.336 -999 4.334862 32.338085 -0.71383
2005-08-24 07:03:43 51°18.108 2°50.315 -999 4.336833 32.352656 -0.71383
2005-08-24 07:03:49 51°18.118 2°50.282 -999 4.336833 32.352656 -0.71383
2005-08-24 07:03:54 51°18.126 2°50.254 -999 4.336211 32.345611 -0.71383
2005-08-24 07:03:59 51°18.134 2°50.227 -999 4.336937 32.351663 -0.71383
2005-08-24 07:04:04 51°18.142 2°50.2 -999 4.337248 32.353637 -0.71383
2005-08-24 07:04:09 51°18.15 2°50.173 -999 4.338286 32.362283 -0.74754
2005-08-24 07:04:14 51°18.158 2°50.145 -999 4.33507 32.335482 -0.74754
2005-08-24 07:04:19 51°18.166 2°50.118 -999 4.33507 32.335482 -0.74754
2005-08-24 07:04:24 51°18.173 2°50.091 -999 4.334447 32.329676 -0.74754
2005-08-24 07:04:29 51°18.18 2°50.066 -999 4.339427 32.371175 -0.74754
2005-08-24 07:04:34 51°18.189 2°50.036 -999 4.341086 32.38439 -0.71383
2005-08-24 07:04:39 51°18.197 2°50.009 -999 4.338389 32.36129 -0.74754
2005-08-24 07:04:42 51°18.201 2°49.995 -999 4.340256 32.376233 -0.74754
2005-08-24 07:04:49 51°18.213 2°49.954 -999 4.340256 32.376233 -0.74754
2005-08-24 07:04:54 51°18.22 2°49.93 -999 4.340153 32.374749 -0.71383
2005-08-24 07:04:59 51°18.23 2°49.899 -999 4.337041 32.348193 -0.71383
2005-08-24 07:05:04 51°18.238 2°49.872 -999 4.337144 32.349058 -0.71383
2005-08-24 07:05:09 51°18.245 2°49.845 -999 4.342642 32.394881 -0.71383
2005-08-24 07:05:14 51°18.252 2°49.82 -999 4.339323 32.367213 -0.71383
2005-08-24 07:05:19 51°18.26 2°49.792 -999 4.339323 32.367213 -0.71383
2005-08-24 07:05:24 51°18.269 2°49.763 -999 4.342435 32.393152 -0.71383
2005-08-24 07:05:29 51°18.277 2°49.736 -999 4.343057 32.3971 -0.74754
2005-08-24 07:05:34 51°18.285 2°49.708 -999 4.340049 32.372026 -0.74754
2005-08-24 07:05:38 51°18.291 2°49.686 -999 4.343783 32.403152 -0.74754
2005-08-24 07:05:44 51°18.301 2°49.654 -999 4.340568 32.376968 -0.71383
2005-08-24 07:05:50 51°18.31 2°49.624 -999 4.340568 32.376968 -0.71383
2005-08-24 07:05:54 51°18.317 2°49.599 -999 4.341916 32.388828 -0.71383
2005-08-24 07:05:59 51°18.325 2°49.574 -999 4.331647 32.303245 -0.71383
2005-08-24 07:06:03 51°18.332 2°49.55 -999 4.34285 32.39661 -0.74754
2005-08-24 07:06:09 51°18.341 2°49.517 -999 4.337352 32.350787 -0.71383
2005-08-24 07:06:14 51°18.348 2°49.492 -999 4.338389 32.359432 -0.71383
2005-08-24 07:06:19 51°18.356 2°49.465 -999 4.338389 32.359432 -0.71383
2005-08-24 07:06:23 51°18.363 2°49.441 -999 4.340049 32.373265 -0.71383
2005-08-24 07:06:29 51°18.372 2°49.408 -999 4.337767 32.354864 -0.71383
2005-08-24 07:06:34 51°18.381 2°49.381 -999 4.340464 32.379202 -0.74754
2005-08-24 07:06:38 51°18.387 2°49.359 -999 4.337767 32.35858 -0.71383
2005-08-24 07:06:43 51°18.395 2°49.332 -999 4.337248 32.355495 -0.71383
2005-08-24 07:06:49 51°18.405 2°49.299 -999 4.337248 32.355495 -0.71383
2005-08-24 07:06:54 51°18.413 2°49.272 -999 4.33673 32.35241 -0.71383
2005-08-24 07:06:59 51°18.421 2°49.245 -999 4.339115 32.372918 -0.71383
2005-08-24 07:07:03 51°18.428 2°49.223 -999 4.334966 32.339569 -0.71383
2005-08-24 07:07:09 51°18.437 2°49.19 -999 4.331647 32.313139 -0.71383
2005-08-24 07:07:14 51°18.444 2°49.166 -999 4.337456 32.362799 -0.71383
2005-08-24 07:07:18 51°18.451 2°49.141 -999 4.337456 32.362799 -0.71383
2005-08-24 07:07:22 51°18.458 2°49.119 -999 4.32563 32.266088 -0.74754
2005-08-24 07:07:29 51°18.469 2°49.081 -999 4.329157 32.297955 -0.71383
2005-08-24 07:07:34 51°18.476 2°49.056 -999 4.325942 32.273007 -0.71383
2005-08-24 07:07:39 51°18.484 2°49.028 -999 4.322726 32.249912 -0.71383
2005-08-24 07:07:44 51°18.493 2°48.999 -999 4.320755 32.234721 -0.71383
2005-08-24 07:07:50 51°18.502 2°48.969 -999 4.320755 32.234721 -0.71383
2005-08-24 07:07:54 51°18.51 2°48.944 -999 4.316087 32.197054 -0.71383
2005-08-24 07:07:59 51°18.518 2°48.917 -999 4.316191 32.197918 -0.71383
2005-08-24 07:08:04 51°18.526 2°48.889 -999 4.312561 32.166435 -0.71383
2005-08-24 07:08:10 51°18.534 2°48.859 -999 4.312664 32.167299 -0.71383
2005-08-24 07:08:14 51°18.541 2°48.834 -999 4.310279 32.146807 -0.71383
2005-08-24 07:08:19 51°18.548 2°48.809 -999 4.310279 32.146807 -0.71383
2005-08-24 07:08:23 51°18.555 2°48.786 -999 4.3081 32.128046 -0.680121
2005-08-24 07:08:29 51°18.565 2°48.751 -999 4.30976 32.141255 -0.680121
2005-08-24 07:08:34 51°18.572 2°48.723 -999 4.303121 32.084733 -0.680121
2005-08-24 07:08:38 51°18.578 2°48.703 -999 4.305611 32.104236 -0.680121
2005-08-24 07:08:44 51°18.587 2°48.669 -999 4.296794 32.029594 -0.680121
2005-08-24 07:08:50 51°18.597 2°48.637 -999 4.296794 32.029594 -0.680121
2005-08-24 07:08:54 51°18.603 2°48.615 -999 4.302914 32.079934 -0.680121
2005-08-24 07:08:59 51°18.612 2°48.585 -999 4.298661 32.043911 -0.680121
2005-08-24 07:09:02 51°18.617 2°48.568 -999 4.300839 32.061433 -0.680121
2005-08-24 07:09:09 51°18.628 2°48.529 -999 4.294305 32.006419 -0.680121
2005-08-24 07:09:14 51°18.636 2°48.501 -999 4.296379 32.023074 -0.680121
2005-08-24 07:09:18 51°18.641 2°48.481 -999 4.296379 32.023074 -0.680121
2005-08-24 07:09:24 51°18.651 2°48.445 -999 4.297209 32.029369 -0.680121
2005-08-24 07:09:29 51°18.659 2°48.417 -999 4.301047 32.060705 -0.680121
2005-08-24 07:09:34 51°18.667 2°48.389 -999 4.301565 32.064409 -0.680121
2005-08-24 07:09:38 51°18.673 2°48.367 -999 4.301669 32.064659 -0.680121
2005-08-24 07:09:42 51°18.679 2°48.348 -999 4.298765 32.039254 -0.680121
2005-08-24 07:09:49 51°18.691 2°48.307 -999 4.298765 32.039254 -0.680121
2005-08-24 07:09:54 51°18.698 2°48.282 -999 4.294512 32.002633 -0.680121
2005-08-24 07:09:59 51°18.706 2°48.251 -999 4.301773 32.061227 -0.680121
2005-08-24 07:10:04 51°18.713 2°48.223 -999 4.301254 32.056296 -0.680121
2005-08-24 07:10:09 51°18.721 2°48.195 -999 4.300424 32.048162 -0.680121
2005-08-24 07:10:14 51°18.728 2°48.17 -999 4.294097 31.993669 -0.680121
2005-08-24 07:10:19 51°18.736 2°48.14 -999 4.294097 31.993669 -0.680121
2005-08-24 07:10:24 51°18.744 2°48.112 -999 4.289844 31.957064 -0.680121
2005-08-24 07:10:30 51°18.752 2°48.081 -999 4.291089 31.965584 -0.680121
2005-08-24 07:10:34 51°18.76 2°48.057 -999 4.288911 31.946242 -0.71383
2005-08-24 07:10:38 51°18.766 2°48.035 -999 4.287977 31.936644 -0.71383
2005-08-24 07:10:42 51°18.772 2°48.015 -999 4.285177 31.911522 -0.680121
2005-08-24 07:10:50 51°18.784 2°47.971 -999 4.285177 31.911522 -0.680121
2005-08-24 07:10:54 51°18.79 2°47.948 -999 4.285488 31.912278 -0.680121
2005-08-24 07:10:59 51°18.799 2°47.918 -999 4.278539 31.853281 -0.680121
2005-08-24 07:11:04 51°18.807 2°47.891 -999 4.283725 31.895786 -0.680121
2005-08-24 07:11:09 51°18.815 2°47.863 -999 4.280198 31.866468 -0.71383
2005-08-24 07:11:14 51°18.822 2°47.836 -999 4.283517 31.894062 -0.680121
2005-08-24 07:11:19 51°18.829 2°47.81 -999 4.283517 31.894062 -0.680121
2005-08-24 07:11:23 51°18.837 2°47.786 -999 4.27522 31.823866 -0.680121
2005-08-24 07:11:30 51°18.847 2°47.75 -999 4.281858 31.877825 -0.680121
2005-08-24 07:11:34 51°18.854 2°47.726 -999 4.281339 31.871686 -0.680121
2005-08-24 07:11:39 51°18.862 2°47.7 -999 4.281961 31.875031 -0.71383
2005-08-24 07:11:44 51°18.87 2°47.67 -999 4.283621 31.887606 -0.71383
2005-08-24 07:11:49 51°18.878 2°47.643 -999 4.283621 31.887606 -0.71383
2005-08-24 07:11:54 51°18.885 2°47.618 -999 4.278331 31.842422 -0.71383
2005-08-24 07:11:59 51°18.894 2°47.588 -999 4.28248 31.875075 -0.71383
2005-08-24 07:12:04 51°18.901 2°47.56 -999 4.284658 31.89135 -0.71383
2005-08-24 07:12:09 51°18.91 2°47.533 -999 4.282998 31.875729 -0.71383
2005-08-24 07:12:14 51°18.917 2°47.508 -999 4.27719 31.826248 -0.71383
2005-08-24 07:12:19 51°18.925 2°47.481 -999 4.27719 31.826248 -0.71383
2005-08-24 07:12:24 51°18.933 2°47.451 -999 4.280613 31.852861 -0.71383
2005-08-24 07:12:30 51°18.942 2°47.421 -999 4.289118 31.92232 -0.71383
2005-08-24 07:12:34 51°18.949 2°47.396 -999 4.289844 31.926524 -0.71383
2005-08-24 07:12:38 51°18.955 2°47.374 -999 4.286836 31.899698 -0.71383
2005-08-24 07:12:44 51°18.965 2°47.341 -999 4.283621 31.872372 -0.74754
2005-08-24 07:12:50 51°18.973 2°47.311 -999 4.283621 31.872372 -0.74754
2005-08-24 07:12:54 51°18.981 2°47.286 -999 4.282583 31.861928 -0.71383
2005-08-24 07:12:58 51°18.987 2°47.265 -999 4.289429 31.918196 -0.71383
2005-08-24 07:13:02 51°18.993 2°47.243 -999 4.289636 31.91931 -0.74754
2005-08-24 07:13:10 51°19.005 2°47.202 -999 4.287458 31.900602 -0.74754
2005-08-24 07:13:14 51°19.011 2°47.18 -999 4.291088 31.930157 -0.74754
2005-08-24 07:13:19 51°19.02 2°47.15 -999 4.291088 31.930157 -0.74754
2005-08-24 07:13:22 51°19.025 2°47.134 -999 4.287769 31.902578 -0.74754
2005-08-24 07:13:30 51°19.037 2°47.093 -999 4.292748 31.944558 -0.781249
2005-08-24 07:13:34 51°19.043 2°47.071 -999 4.284761 31.878806 -0.74754
2005-08-24 07:13:38 51°19.05 2°47.047 -999 4.282376 31.859596 -0.74754
2005-08-24 07:13:44 51°19.059 2°47.014 -999 4.291089 31.933207 -0.74754
2005-08-24 07:13:49 51°19.067 2°46.986 -999 4.291089 31.933207 -0.74754
2005-08-24 07:13:54 51°19.074 2°46.962 -999 4.290777 31.931232 -0.781249
2005-08-24 07:13:58 51°19.081 2°46.94 -999 4.290051 31.927028 -0.781249
2005-08-24 07:14:04 51°19.091 2°46.904 -999 4.274493 31.798982 -0.781249
2005-08-24 07:14:09 51°19.099 2°46.877 -999 4.286214 31.896965 -0.781249
2005-08-24 07:14:14 51°19.106 2°46.852 -999 4.275427 31.807952 -0.74754
2005-08-24 07:14:18 51°19.112 2°46.83 -999 4.275427 31.807952 -0.74754
2005-08-24 07:14:24 51°19.122 2°46.794 -999 4.289948 31.929827 -0.781249
2005-08-24 07:14:29 51°19.13 2°46.767 -999 4.290051 31.931299 -0.781249
2005-08-24 07:14:34 51°19.138 2°46.742 -999 4.287044 31.907519 -0.781249
2005-08-24 07:14:39 51°19.146 2°46.712 -999 4.287251 31.909243 -0.781249
2005-08-24 07:14:44 51°19.155 2°46.684 -999 4.285073 31.89175 -0.781249
2005-08-24 07:14:49 51°19.163 2°46.657 -999 4.285073 31.89175 -0.781249
2005-08-24 07:14:54 51°19.17 2°46.632 -999 4.279161 31.84323 -0.781249
2005-08-24 07:14:59 51°19.179 2°46.604 -999 4.280924 31.858491 -0.781249
2005-08-24 07:15:04 51°19.187 2°46.574 -999 4.289014 31.925729 -0.781249
2005-08-24 07:15:09 51°19.195 2°46.547 -999 4.290881 31.94186 -0.781249
2005-08-24 07:15:14 51°19.204 2°46.519 -999 4.293371 31.962555 -0.781249
2005-08-24 07:15:19 51°19.212 2°46.491 -999 4.293371 31.962555 -0.781249
2005-08-24 07:15:23 51°19.218 2°46.469 -999 4.291607 31.948506 -0.781249
2005-08-24 07:15:29 51°19.228 2°46.436 -999 4.289325 31.929537 -0.781249
2005-08-24 07:15:34 51°19.236 2°46.408 -999 4.291607 31.949117 -0.781249
2005-08-24 07:15:39 51°19.244 2°46.383 -999 4.292748 31.959214 -0.781249